SWR8067 VRMM-LSZH

Flight info

Callsign SWR8067
Flight time 9h 44m
Altitude 36000
Route ELBET1A ELBET L894 BOLUR/N0487F380 L894 KITAL P570 EMURU N563 SODEX/N0497F340 N563 BOSEV/N0488F380 Q565 UKUVO G462 TUMAK L602 GADSI/N0487F400 M860 SEPTU DCT VUSEB M860 NINVA UM860 ODALI UL852 NEGEM DCT ARGES DCT NERDI DCT MOPUG DCT GOTAR DCT ERKIR DCT KPT L856 NEGRA
Aircraft B772/H-SDE2E3FGHIJ5LORVWXY/LB1D1

Departure

Time 2026-04-26 08:39
Airport Velana International Airport (VRMM)

Arrival

Time 2026-04-26 18:24
Airport Zürich Airport (LSZH)
Time Latitude Longitude Altitude Speed Heading
2026-04-26 07:23 4.18673 73.52808 17 ft 0 kts 270°
2026-04-26 08:24 4.18673 73.52812 17 ft 1 kts 270°
2026-04-26 08:24 4.18673 73.52817 17 ft 1 kts 270°
2026-04-26 08:25 4.18673 73.52821 17 ft 1 kts 270°
2026-04-26 08:25 4.18673 73.52826 17 ft 1 kts 270°
2026-04-26 08:25 4.18673 73.52830 17 ft 1 kts 270°
2026-04-26 08:25 4.18673 73.52835 17 ft 1 kts 268°
2026-04-26 08:26 4.18673 73.52839 17 ft 1 kts 258°
2026-04-26 08:26 4.18674 73.52844 17 ft 1 kts 247°
2026-04-26 08:26 4.18675 73.52848 17 ft 1 kts 237°
2026-04-26 08:26 4.18677 73.52852 17 ft 1 kts 227°
2026-04-26 08:27 4.18680 73.52856 17 ft 1 kts 216°
2026-04-26 08:27 4.18684 73.52859 17 ft 1 kts 206°
2026-04-26 08:27 4.18688 73.52861 21 ft 1 kts 196°
2026-04-26 08:27 4.18691 73.52862 20 ft 0 kts 190°
2026-04-26 08:31 4.18665 73.52860 19 ft 9 kts 184°
2026-04-26 08:32 4.18624 73.52867 17 ft 5 kts 140°
2026-04-26 08:32 4.18612 73.52902 17 ft 5 kts 111°
2026-04-26 08:32 4.18583 73.52923 17 ft 5 kts 164°
2026-04-26 08:32 4.18545 73.52925 17 ft 5 kts 178°
2026-04-26 08:33 4.18508 73.52927 17 ft 5 kts 178°
2026-04-26 08:33 4.18471 73.52928 18 ft 5 kts 178°
2026-04-26 08:33 4.18418 73.52929 17 ft 11 kts 178°
2026-04-26 08:33 4.18342 73.52930 18 ft 11 kts 180°
2026-04-26 08:34 4.18267 73.52930 17 ft 11 kts 179°
2026-04-26 08:34 4.18216 73.52940 17 ft 6 kts 140°
2026-04-26 08:34 4.18202 73.52972 17 ft 2 kts 99°
2026-04-26 08:34 4.18202 73.52974 17 ft 0 kts 98°
2026-04-26 08:36 4.18198 73.53023 17 ft 8 kts 90°
2026-04-26 08:37 4.18199 73.53069 17 ft 5 kts 89°
2026-04-26 08:37 4.18217 73.53094 17 ft 3 kts 26°
2026-04-26 08:37 4.18240 73.53099 17 ft 3 kts
2026-04-26 08:37 4.18264 73.53100 17 ft 3 kts
2026-04-26 08:38 4.18279 73.53101 17 ft 3 kts
2026-04-26 08:38 4.18305 73.53102 17 ft 7 kts
2026-04-26 08:38 4.18525 73.53103 17 ft 63 kts 359°
2026-04-26 08:38 4.19179 73.53101 17 ft 124 kts 360°
2026-04-26 08:39 4.20231 73.53098 30 ft 175 kts 360°
2026-04-26 08:39 4.21460 73.53113 674 ft 170 kts
2026-04-26 08:39 4.22658 73.53214 1240 ft 183 kts
2026-04-26 08:39 4.23979 73.53320 1758 ft 190 kts
2026-04-26 08:40 4.25295 73.53375 2287 ft 188 kts
2026-04-26 08:40 4.26582 73.53382 2778 ft 183 kts 359°
2026-04-26 08:40 4.27837 73.53361 3243 ft 178 kts 359°
2026-04-26 08:40 4.29109 73.53300 3432 ft 191 kts 356°
2026-04-26 08:41 4.30474 73.53223 3595 ft 207 kts 358°
2026-04-26 08:41 4.31975 73.53162 3751 ft 224 kts 359°
2026-04-26 08:41 4.33610 73.53121 3852 ft 246 kts 359°
2026-04-26 08:41 4.35383 73.53098 4124 ft 261 kts 360°
2026-04-26 08:42 4.37230 73.53085 4615 ft 269 kts
2026-04-26 08:42 4.39122 73.53077 5159 ft 274 kts
2026-04-26 08:42 4.41033 73.53047 5764 ft 274 kts 355°
2026-04-26 08:42 4.42859 73.52453 6217 ft 283 kts 329°
2026-04-26 08:43 4.44407 73.51256 6819 ft 285 kts 320°
2026-04-26 08:43 4.45909 73.49943 7422 ft 288 kts 320°
2026-04-26 08:43 4.47426 73.48609 8023 ft 291 kts 320°
2026-04-26 08:43 4.48957 73.47264 8653 ft 293 kts 320°
2026-04-26 08:44 4.50503 73.45909 9238 ft 296 kts 320°
2026-04-26 08:44 4.52065 73.44544 9847 ft 300 kts 321°
2026-04-26 08:44 4.53650 73.43162 10324 ft 307 kts 321°
2026-04-26 08:44 4.55322 73.41709 10470 ft 328 kts 321°
2026-04-26 08:45 4.57101 73.40165 10635 ft 349 kts 320°
2026-04-26 08:45 4.58996 73.38519 10785 ft 371 kts 320°
2026-04-26 08:45 4.60988 73.36789 11153 ft 385 kts 320°
2026-04-26 08:45 4.63009 73.35032 11704 ft 394 kts 320°
2026-04-26 08:46 4.65093 73.33221 12443 ft 398 kts 320°
2026-04-26 08:46 4.67197 73.31394 13228 ft 402 kts 320°
2026-04-26 08:46 4.69322 73.29550 13942 ft 406 kts 320°
2026-04-26 08:46 4.71474 73.27683 14608 ft 410 kts 320°
2026-04-26 08:47 4.73640 73.25803 15280 ft 414 kts 320°
2026-04-26 08:47 4.75825 73.23906 15949 ft 417 kts 321°
2026-04-26 08:47 4.78025 73.21995 16638 ft 420 kts 321°
2026-04-26 08:47 4.80248 73.20064 17265 ft 424 kts 321°
2026-04-26 08:48 4.82486 73.18120 17882 ft 428 kts 321°
2026-04-26 08:48 4.84743 73.16158 18443 ft 431 kts 321°
2026-04-26 08:48 4.86996 73.14201 18946 ft 435 kts 320°
2026-04-26 08:48 4.89298 73.12200 19442 ft 439 kts 320°
2026-04-26 08:49 4.91621 73.10181 19953 ft 443 kts 320°
2026-04-26 08:49 4.93959 73.08155 20393 ft 446 kts 320°
2026-04-26 08:49 4.96312 73.06108 20826 ft 450 kts 320°
2026-04-26 08:49 4.98685 73.04036 21286 ft 454 kts 320°
2026-04-26 08:50 5.01060 73.01966 21760 ft 457 kts 320°
2026-04-26 08:50 5.03477 72.99868 22221 ft 460 kts 320°
2026-04-26 08:50 5.05901 72.97760 22657 ft 462 kts 320°
2026-04-26 08:50 5.08352 72.95637 22976 ft 467 kts 319°
2026-04-26 08:51 5.13289 72.91333 23776 ft 472 kts 319°
2026-04-26 08:51 5.15786 72.89163 24131 ft 476 kts 319°
2026-04-26 08:51 5.18294 72.86977 24456 ft 480 kts 319°
2026-04-26 08:52 5.20797 72.84791 24784 ft 483 kts 319°
2026-04-26 08:52 5.23342 72.82573 25144 ft 486 kts 319°
2026-04-26 08:52 5.25906 72.80343 25490 ft 489 kts 319°
2026-04-26 08:52 5.28493 72.78093 25822 ft 493 kts 318°
2026-04-26 08:53 5.31097 72.75828 26139 ft 496 kts 318°
2026-04-26 08:53 5.33707 72.73557 26446 ft 499 kts 318°
2026-04-26 08:53 5.36344 72.71262 26738 ft 502 kts 318°
2026-04-26 08:53 5.38992 72.68956 27037 ft 505 kts 318°
2026-04-26 08:54 5.41654 72.66637 27323 ft 508 kts 318°
2026-04-26 08:54 5.44331 72.64305 27598 ft 511 kts 318°
2026-04-26 08:54 5.47027 72.61955 27864 ft 513 kts 317°
2026-04-26 08:54 5.49725 72.59604 28105 ft 516 kts 317°
2026-04-26 08:55 5.52441 72.57236 28354 ft 518 kts 317°
2026-04-26 08:55 5.55171 72.54857 28597 ft 521 kts 317°
2026-04-26 08:55 5.57874 72.52500 28797 ft 523 kts 317°
2026-04-26 08:55 5.60632 72.50095 28999 ft 525 kts 317°
2026-04-26 08:56 5.63395 72.47686 29187 ft 527 kts 317°
2026-04-26 08:56 5.66179 72.45257 29378 ft 529 kts 317°
2026-04-26 08:56 5.68962 72.42830 29554 ft 531 kts 317°
2026-04-26 08:56 5.71750 72.40398 29783 ft 531 kts 317°
2026-04-26 08:57 5.74543 72.37962 30032 ft 530 kts 317°
2026-04-26 08:57 5.77326 72.35533 30281 ft 529 kts 317°
2026-04-26 08:57 5.80103 72.33110 30536 ft 528 kts 317°
2026-04-26 08:57 5.82880 72.30686 30796 ft 527 kts 317°
2026-04-26 08:58 5.85614 72.28299 31041 ft 526 kts 317°
2026-04-26 08:58 5.88377 72.25886 31258 ft 526 kts 316°
2026-04-26 08:58 5.91143 72.23469 31484 ft 526 kts 316°
2026-04-26 08:58 5.93894 72.21067 31729 ft 525 kts 316°
2026-04-26 08:59 5.96647 72.18663 31972 ft 524 kts 316°
2026-04-26 08:59 5.99398 72.16262 32192 ft 524 kts 316°
2026-04-26 08:59 6.02147 72.13862 32427 ft 523 kts 316°
2026-04-26 08:59 6.04900 72.11458 32642 ft 523 kts 316°
2026-04-26 09:00 6.07643 72.09062 32863 ft 522 kts 316°
2026-04-26 09:00 6.10390 72.06662 33084 ft 522 kts 316°
2026-04-26 09:00 6.13122 72.04275 33299 ft 521 kts 316°
2026-04-26 09:00 6.15863 72.01878 33518 ft 521 kts 316°
2026-04-26 09:01 6.18592 71.99494 33794 ft 519 kts 316°
2026-04-26 09:01 6.21318 71.97110 34016 ft 518 kts 316°
2026-04-26 09:01 6.24034 71.94734 34196 ft 517 kts 315°
2026-04-26 09:01 6.26749 71.92360 34375 ft 517 kts 315°
2026-04-26 09:02 6.29426 71.90018 34574 ft 516 kts 315°
2026-04-26 09:02 6.32139 71.87644 34844 ft 514 kts 315°
2026-04-26 09:02 6.34832 71.85287 35062 ft 513 kts 315°
2026-04-26 09:02 6.37529 71.82933 35233 ft 514 kts 316°
2026-04-26 09:03 6.40299 71.80646 35412 ft 515 kts 318°
2026-04-26 09:03 6.43123 71.78431 35612 ft 515 kts 319°
2026-04-26 09:03 6.45970 71.76246 35745 ft 516 kts 319°
2026-04-26 09:04 6.51678 71.71870 35836 ft 515 kts 319°
2026-04-26 09:04 6.57307 71.67498 35832 ft 513 kts 318°
2026-04-26 09:05 6.62937 71.63088 35839 ft 512 kts 318°
2026-04-26 09:05 6.68552 71.58682 35835 ft 511 kts 318°
2026-04-26 09:06 6.74129 71.54308 35833 ft 510 kts 318°
2026-04-26 09:06 6.79733 71.49914 35837 ft 510 kts 318°
2026-04-26 09:07 6.85330 71.45525 35840 ft 510 kts 318°
2026-04-26 09:07 6.90926 71.41134 35837 ft 510 kts 318°
2026-04-26 09:08 6.96523 71.36742 35836 ft 510 kts 318°
2026-04-26 09:08 7.02127 71.32343 35836 ft 510 kts 318°
2026-04-26 09:09 7.07732 71.27941 35837 ft 510 kts 318°
2026-04-26 09:09 7.13339 71.23537 35833 ft 511 kts 318°
2026-04-26 09:10 7.18917 71.19154 35837 ft 511 kts 318°
2026-04-26 09:10 7.24527 71.14745 35840 ft 511 kts 318°
2026-04-26 09:11 7.30130 71.10339 35835 ft 511 kts 318°
2026-04-26 09:11 7.35738 71.05928 35836 ft 511 kts 318°
2026-04-26 09:12 7.41301 71.01550 35835 ft 511 kts 318°
2026-04-26 09:12 7.46913 70.97132 35836 ft 511 kts 318°
2026-04-26 09:13 7.52512 70.92723 35836 ft 511 kts 318°
2026-04-26 09:13 7.58114 70.88306 35836 ft 511 kts 318°
2026-04-26 09:14 7.63684 70.83911 35836 ft 511 kts 317°
2026-04-26 09:14 7.69292 70.79483 35837 ft 511 kts 317°
2026-04-26 09:15 7.74894 70.75059 35839 ft 511 kts 317°
2026-04-26 09:15 7.80497 70.70632 35839 ft 511 kts 317°
2026-04-26 09:16 7.86051 70.66243 35838 ft 511 kts 317°
2026-04-26 09:16 7.91660 70.61808 35836 ft 511 kts 317°
2026-04-26 09:17 7.97257 70.57382 35833 ft 511 kts 317°
2026-04-26 09:17 8.02860 70.52950 35835 ft 511 kts 317°
2026-04-26 09:18 8.08451 70.48524 35840 ft 511 kts 317°
2026-04-26 09:18 8.14026 70.44110 35834 ft 512 kts 317°
2026-04-26 09:19 8.19641 70.39664 35836 ft 512 kts 317°
2026-04-26 09:19 8.25244 70.35225 35834 ft 512 kts 317°
2026-04-26 09:20 8.30847 70.30783 35836 ft 512 kts 317°
2026-04-26 09:20 8.36451 70.26340 35838 ft 512 kts 317°
2026-04-26 09:21 8.42060 70.21891 35832 ft 512 kts 317°
2026-04-26 09:21 8.47654 70.17453 35835 ft 512 kts 317°
2026-04-26 09:22 8.53262 70.13001 35833 ft 512 kts 317°
2026-04-26 09:22 8.58837 70.08574 35839 ft 512 kts 317°
2026-04-26 09:23 8.64440 70.04123 35836 ft 512 kts 317°
2026-04-26 09:23 8.70033 69.99679 35835 ft 511 kts 317°
2026-04-26 09:24 8.75621 69.95236 35835 ft 511 kts 317°
2026-04-26 09:24 8.80320 69.91499 35838 ft 511 kts 317°
2026-04-26 09:25 8.85858 69.87093 35835 ft 510 kts 317°
2026-04-26 09:25 8.91448 69.82644 35837 ft 510 kts 317°
2026-04-26 09:26 8.97030 69.78199 35838 ft 510 kts 317°
2026-04-26 09:26 9.02603 69.73760 35834 ft 510 kts 317°
2026-04-26 09:27 9.08174 69.69321 35834 ft 510 kts 317°
2026-04-26 09:27 9.13711 69.64906 35836 ft 509 kts 317°
2026-04-26 09:28 9.19278 69.60467 35838 ft 509 kts 317°
2026-04-26 09:28 9.24857 69.56016 35841 ft 509 kts 317°
2026-04-26 09:29 9.30434 69.51564 35838 ft 509 kts 317°
2026-04-26 09:29 9.35968 69.47145 35836 ft 509 kts 317°
2026-04-26 09:30 9.41531 69.42700 35837 ft 509 kts 317°
2026-04-26 09:30 9.47098 69.38251 35840 ft 509 kts 317°
2026-04-26 09:31 9.52665 69.33800 35836 ft 509 kts 317°
2026-04-26 09:31 9.58224 69.29353 35840 ft 509 kts 317°
2026-04-26 09:32 9.63783 69.24904 35834 ft 509 kts 317°
2026-04-26 09:32 9.69342 69.20452 35834 ft 509 kts 317°
2026-04-26 09:33 9.74902 69.15999 35834 ft 509 kts 317°
2026-04-26 09:33 9.80469 69.11539 35835 ft 509 kts 317°
2026-04-26 09:34 9.86004 69.07100 35833 ft 510 kts 317°
2026-04-26 09:34 9.91577 69.02627 35842 ft 510 kts 317°
2026-04-26 09:35 9.97139 68.98162 35838 ft 510 kts 317°
2026-04-26 09:35 10.02701 68.93694 35837 ft 510 kts 317°
2026-04-26 09:36 10.08238 68.89244 35835 ft 510 kts 317°
2026-04-26 09:36 10.13799 68.84774 35835 ft 510 kts 317°
2026-04-26 09:37 10.19366 68.80296 35840 ft 510 kts 317°
2026-04-26 09:37 10.24921 68.75826 35835 ft 510 kts 316°
2026-04-26 09:38 10.30472 68.71357 35847 ft 510 kts 316°
2026-04-26 09:38 10.36042 68.66871 35844 ft 510 kts 316°
2026-04-26 09:39 10.41605 68.62388 35826 ft 511 kts 316°
2026-04-26 09:39 10.47169 68.57902 35845 ft 510 kts 316°
2026-04-26 09:40 10.52733 68.53415 35847 ft 510 kts 316°
2026-04-26 09:40 10.58305 68.48918 35836 ft 511 kts 316°
2026-04-26 09:41 10.63876 68.44420 35833 ft 512 kts 316°
2026-04-26 09:41 10.69454 68.39915 35848 ft 512 kts 316°
2026-04-26 09:42 10.75010 68.35424 35833 ft 513 kts 316°
2026-04-26 09:42 10.80588 68.30914 35835 ft 513 kts 316°
2026-04-26 09:43 10.86181 68.26391 35833 ft 513 kts 316°
2026-04-26 09:43 10.91775 68.21863 35833 ft 513 kts 316°
2026-04-26 09:44 10.97363 68.17339 35836 ft 513 kts 316°
2026-04-26 09:44 11.02966 68.12800 35838 ft 514 kts 316°
2026-04-26 09:45 11.08525 68.08294 35841 ft 514 kts 316°
2026-04-26 09:45 11.14123 68.03754 35838 ft 514 kts 316°
2026-04-26 09:46 11.19715 67.99217 35844 ft 514 kts 316°
2026-04-26 09:46 11.25308 67.94677 35840 ft 514 kts 316°
2026-04-26 09:47 11.30903 67.90133 35836 ft 514 kts 316°
2026-04-26 09:47 11.36478 67.85603 35839 ft 514 kts 316°
2026-04-26 09:48 11.42066 67.81060 35842 ft 514 kts 316°
2026-04-26 09:48 11.47666 67.76505 35838 ft 514 kts 316°
2026-04-26 09:49 11.53266 67.71947 35839 ft 514 kts 316°
2026-04-26 09:49 11.58860 67.67392 35838 ft 515 kts 316°
2026-04-26 09:50 11.64466 67.62824 35838 ft 515 kts 316°
2026-04-26 09:50 11.70029 67.58290 35840 ft 515 kts 316°
2026-04-26 09:51 11.75622 67.53727 35850 ft 515 kts 316°
2026-04-26 09:51 11.81208 67.49168 35845 ft 515 kts 316°
2026-04-26 09:52 11.86811 67.44593 35846 ft 514 kts 316°
2026-04-26 09:52 11.95186 67.37750 35841 ft 514 kts 316°
2026-04-26 09:53 12.00769 67.33188 35842 ft 513 kts 316°
2026-04-26 09:53 12.06303 67.28664 35841 ft 513 kts 316°
2026-04-26 09:54 12.11881 67.24101 35844 ft 512 kts 316°
2026-04-26 09:54 12.17445 67.19545 35855 ft 511 kts 316°
2026-04-26 09:55 12.22994 67.15000 35843 ft 510 kts 316°
2026-04-26 09:55 12.28521 67.10469 35845 ft 508 kts 316°
2026-04-26 09:56 12.33997 67.05978 35845 ft 507 kts 316°
2026-04-26 09:56 12.39503 67.01459 35846 ft 506 kts 316°
2026-04-26 09:57 12.45002 66.96944 35841 ft 506 kts 316°
2026-04-26 09:57 12.50483 66.92441 35848 ft 506 kts 316°
2026-04-26 09:58 12.55972 66.87929 35851 ft 505 kts 316°
2026-04-26 09:58 12.61453 66.83421 35843 ft 505 kts 316°
2026-04-26 09:59 12.66008 66.79673 35848 ft 505 kts 316°
2026-04-26 09:59 12.72414 66.74399 35849 ft 505 kts 316°
2026-04-26 10:00 12.77891 66.69886 35854 ft 505 kts 316°
2026-04-26 10:00 12.83375 66.65365 35845 ft 505 kts 316°
2026-04-26 10:01 12.88830 66.60865 35852 ft 506 kts 316°
2026-04-26 10:01 12.94318 66.56337 35850 ft 506 kts 316°
2026-04-26 10:02 12.99809 66.51802 35848 ft 506 kts 316°
2026-04-26 10:02 13.05296 66.47269 35843 ft 507 kts 316°
2026-04-26 10:03 13.10785 66.42731 35848 ft 507 kts 316°
2026-04-26 10:03 13.16252 66.38209 35837 ft 507 kts 316°
2026-04-26 10:04 13.21750 66.33658 35839 ft 507 kts 316°
2026-04-26 10:04 13.27241 66.29110 35839 ft 507 kts 316°
2026-04-26 10:05 13.32739 66.24554 35854 ft 507 kts 316°
2026-04-26 10:05 13.38228 66.20003 35860 ft 507 kts 316°
2026-04-26 10:06 13.43715 66.15450 35834 ft 507 kts 316°
2026-04-26 10:06 13.49179 66.10913 35853 ft 506 kts 316°
2026-04-26 10:07 13.54657 66.06363 35852 ft 506 kts 316°
2026-04-26 10:07 13.60131 66.01812 35834 ft 506 kts 316°
2026-04-26 10:08 13.64680 65.98029 35837 ft 506 kts 316°
2026-04-26 10:08 13.70154 65.93473 35851 ft 505 kts 317°
2026-04-26 10:09 13.75623 65.88919 35840 ft 505 kts 317°
2026-04-26 10:09 13.81079 65.84373 35844 ft 504 kts 317°
2026-04-26 10:10 13.86528 65.79829 35844 ft 504 kts 317°
2026-04-26 10:10 13.91973 65.75286 35844 ft 504 kts 317°
2026-04-26 10:11 13.97384 65.70768 35838 ft 503 kts 317°
2026-04-26 10:11 14.02829 65.66222 35839 ft 503 kts 317°
2026-04-26 10:12 14.08273 65.61674 35842 ft 503 kts 317°
2026-04-26 10:12 14.13710 65.57128 35846 ft 503 kts 317°
2026-04-26 10:13 14.19158 65.52569 35841 ft 503 kts 317°
2026-04-26 10:13 14.24558 65.48047 35840 ft 503 kts 317°
2026-04-26 10:14 14.29993 65.43492 35849 ft 503 kts 318°
2026-04-26 10:14 14.35432 65.38932 35840 ft 503 kts 318°
2026-04-26 10:15 14.40867 65.34371 35843 ft 503 kts 318°
2026-04-26 10:15 14.46298 65.29811 35844 ft 503 kts 318°
2026-04-26 10:16 14.51688 65.25283 35844 ft 502 kts 318°
2026-04-26 10:16 14.57123 65.20713 35843 ft 501 kts 318°
2026-04-26 10:17 14.62527 65.16168 35848 ft 501 kts 319°
2026-04-26 10:17 14.67923 65.11629 35842 ft 500 kts 319°
2026-04-26 10:18 14.73286 65.07114 35844 ft 499 kts 319°
2026-04-26 10:18 14.78664 65.02580 35843 ft 499 kts 319°
2026-04-26 10:19 14.84037 64.98048 35846 ft 498 kts 319°
2026-04-26 10:19 14.89410 64.93513 35849 ft 498 kts 319°
2026-04-26 10:20 14.94774 64.88983 35844 ft 497 kts 319°
2026-04-26 10:20 15.00130 64.84458 35846 ft 496 kts 319°
2026-04-26 10:21 15.05472 64.79940 35846 ft 496 kts 319°
2026-04-26 10:21 15.10810 64.75423 35846 ft 495 kts 319°
2026-04-26 10:22 15.16120 64.70926 35846 ft 495 kts 319°
2026-04-26 10:22 15.21450 64.66409 35850 ft 495 kts 320°
2026-04-26 10:23 15.26777 64.61893 35846 ft 495 kts 320°
2026-04-26 10:23 15.32099 64.57378 35847 ft 494 kts 320°
2026-04-26 10:24 15.37417 64.52862 35846 ft 494 kts 320°
2026-04-26 10:24 15.42733 64.48345 35846 ft 494 kts 320°
2026-04-26 10:25 15.48059 64.43817 35850 ft 494 kts 320°
2026-04-26 10:25 15.53375 64.39294 35846 ft 494 kts 320°
2026-04-26 10:26 15.58656 64.34807 35848 ft 493 kts 321°
2026-04-26 10:26 15.63999 64.30339 35845 ft 492 kts 320°
2026-04-26 10:27 15.69276 64.25801 35846 ft 492 kts 319°
2026-04-26 10:27 15.74539 64.21260 35844 ft 492 kts 320°
2026-04-26 10:28 15.79825 64.16733 35844 ft 492 kts 320°
2026-04-26 10:28 15.85111 64.12221 35844 ft 492 kts 320°
2026-04-26 10:29 15.90367 64.07731 35841 ft 492 kts 320°
2026-04-26 10:29 15.95657 64.03207 35841 ft 492 kts 321°
2026-04-26 10:30 16.00939 63.98685 35840 ft 491 kts 320°
2026-04-26 10:30 16.06210 63.94167 35844 ft 490 kts 321°
2026-04-26 10:31 16.11473 63.89655 35836 ft 489 kts 321°
2026-04-26 10:31 16.16693 63.85180 35831 ft 488 kts 321°
2026-04-26 10:32 16.21924 63.80684 35833 ft 487 kts 321°
2026-04-26 10:32 16.27142 63.76199 35838 ft 486 kts 321°
2026-04-26 10:33 16.32360 63.71714 35835 ft 486 kts 321°
2026-04-26 10:33 16.37531 63.67266 35839 ft 485 kts 321°
2026-04-26 10:34 16.42731 63.62789 35835 ft 485 kts 321°
2026-04-26 10:34 16.47928 63.58311 35841 ft 485 kts 321°
2026-04-26 10:35 16.53129 63.53826 35838 ft 485 kts 321°
2026-04-26 10:35 16.58331 63.49337 35842 ft 485 kts 321°
2026-04-26 10:36 16.63533 63.44845 35842 ft 485 kts 321°
2026-04-26 10:36 16.68734 63.40350 35843 ft 484 kts 322°
2026-04-26 10:37 16.73909 63.35874 35842 ft 483 kts 322°
2026-04-26 10:37 16.79083 63.31396 35843 ft 483 kts 322°
2026-04-26 10:38 16.84220 63.26946 35843 ft 482 kts 322°
2026-04-26 10:38 16.89381 63.22473 35847 ft 482 kts 322°
2026-04-26 10:39 16.94573 63.17969 35846 ft 482 kts 322°
2026-04-26 10:39 16.99700 63.13518 35846 ft 482 kts 322°
2026-04-26 10:40 17.04832 63.08985 35848 ft 481 kts 321°
2026-04-26 10:40 17.09871 63.04391 35847 ft 481 kts 321°
2026-04-26 10:41 17.14908 62.99783 35845 ft 480 kts 321°
2026-04-26 10:41 17.19916 62.95217 35851 ft 480 kts 321°
2026-04-26 10:42 17.24131 62.91382 35847 ft 480 kts 321°
2026-04-26 10:42 17.29983 62.86056 35853 ft 479 kts 321°
2026-04-26 10:43 17.35010 62.81477 35854 ft 479 kts 321°
2026-04-26 10:43 17.40034 62.76896 35855 ft 478 kts 321°
2026-04-26 10:44 17.45044 62.72324 35858 ft 478 kts 321°
2026-04-26 10:44 17.50040 62.67761 36050 ft 474 kts 321°
2026-04-26 10:45 17.52495 62.65517 36162 ft 473 kts 321°
2026-04-26 10:45 17.54975 62.63251 36281 ft 473 kts 321°
2026-04-26 10:45 17.57455 62.60984 36401 ft 473 kts 321°
2026-04-26 10:45 17.59934 62.58716 36542 ft 473 kts 321°
2026-04-26 10:46 17.62416 62.56445 36689 ft 472 kts 321°
2026-04-26 10:46 17.64890 62.54180 36833 ft 472 kts 321°
2026-04-26 10:46 17.67368 62.51911 36978 ft 472 kts 321°
2026-04-26 10:46 17.69838 62.49648 37122 ft 471 kts 321°
2026-04-26 10:47 17.72299 62.47392 37289 ft 470 kts 321°
2026-04-26 10:47 17.74766 62.45130 37439 ft 470 kts 321°
2026-04-26 10:47 17.77229 62.42871 37586 ft 469 kts 321°
2026-04-26 10:47 17.79656 62.40644 37730 ft 468 kts 321°
2026-04-26 10:48 17.84565 62.36137 37829 ft 468 kts 321°
2026-04-26 10:48 17.89461 62.31639 37852 ft 467 kts 321°
2026-04-26 10:49 17.94358 62.27136 37859 ft 467 kts 321°
2026-04-26 10:49 17.99220 62.22663 37864 ft 467 kts 321°
2026-04-26 10:50 18.03317 62.18891 37861 ft 466 kts 321°
2026-04-26 10:50 18.08992 62.13661 37860 ft 465 kts 321°
2026-04-26 10:51 18.16279 62.06938 37858 ft 464 kts 321°
2026-04-26 10:52 18.21128 62.02461 37867 ft 463 kts 321°
2026-04-26 10:52 18.25149 61.98744 37868 ft 463 kts 321°
2026-04-26 10:53 18.30002 61.94296 37856 ft 461 kts 321°
2026-04-26 10:53 18.34829 61.89851 37866 ft 459 kts 321°
2026-04-26 10:54 18.41983 61.83227 37863 ft 457 kts 321°
2026-04-26 10:54 18.46728 61.78775 37864 ft 455 kts 321°
2026-04-26 10:55 18.51471 61.74359 37871 ft 454 kts 321°
2026-04-26 10:55 18.56176 61.69992 37866 ft 453 kts 321°
2026-04-26 10:56 18.60906 61.65599 37865 ft 452 kts 321°
2026-04-26 10:56 18.65615 61.61221 37865 ft 451 kts 321°
2026-04-26 10:57 18.70318 61.56844 37868 ft 451 kts 321°
2026-04-26 10:57 18.74993 61.52490 37870 ft 451 kts 321°
2026-04-26 10:58 18.79696 61.48106 37872 ft 451 kts 321°
2026-04-26 10:58 18.84407 61.43711 37868 ft 451 kts 321°
2026-04-26 10:59 18.89106 61.39324 37868 ft 451 kts 321°
2026-04-26 10:59 18.93810 61.34929 37869 ft 451 kts 321°
2026-04-26 11:00 18.98508 61.30536 37873 ft 450 kts 321°
2026-04-26 11:00 19.03169 61.26174 37873 ft 449 kts 321°
2026-04-26 11:01 19.07846 61.21793 37870 ft 448 kts 321°
2026-04-26 11:01 19.12515 61.17418 37868 ft 447 kts 321°
2026-04-26 11:02 19.17170 61.13051 37868 ft 447 kts 321°
2026-04-26 11:02 19.21820 61.08686 37869 ft 447 kts 321°
2026-04-26 11:03 19.26474 61.04314 37867 ft 447 kts 321°
2026-04-26 11:03 19.31095 60.99969 37869 ft 446 kts 321°
2026-04-26 11:04 19.35732 60.95605 37866 ft 446 kts 321°
2026-04-26 11:04 19.40377 60.91231 37869 ft 446 kts 321°
2026-04-26 11:05 19.45026 60.86850 37867 ft 446 kts 321°
2026-04-26 11:05 19.49647 60.82491 37869 ft 446 kts 321°
2026-04-26 11:06 19.54288 60.78110 37869 ft 446 kts 321°
2026-04-26 11:06 19.58929 60.73726 37861 ft 446 kts 321°
2026-04-26 11:07 19.63570 60.69337 37872 ft 446 kts 321°
2026-04-26 11:07 19.68167 60.64987 37870 ft 446 kts 321°
2026-04-26 11:08 19.72798 60.60601 37868 ft 446 kts 321°
2026-04-26 11:08 19.77432 60.56209 37869 ft 446 kts 321°
2026-04-26 11:09 19.82055 60.51824 37874 ft 445 kts 321°
2026-04-26 11:09 19.86658 60.47453 37870 ft 445 kts 321°
2026-04-26 11:10 19.91257 60.43083 37868 ft 445 kts 321°
2026-04-26 11:10 19.95873 60.38693 37867 ft 445 kts 321°
2026-04-26 11:11 20.00492 60.34297 37868 ft 444 kts 321°
2026-04-26 11:11 20.05182 60.30029 37874 ft 442 kts 326°
2026-04-26 11:12 20.10335 60.26568 37863 ft 440 kts 331°
2026-04-26 11:12 20.15616 60.23266 37862 ft 440 kts 331°
2026-04-26 11:13 20.20888 60.19940 37863 ft 441 kts 331°
2026-04-26 11:13 20.26169 60.16592 37853 ft 441 kts 331°
2026-04-26 11:14 20.31438 60.13245 37851 ft 440 kts 331°
2026-04-26 11:14 20.36668 60.09921 37860 ft 440 kts 331°
2026-04-26 11:15 20.41923 60.06579 37849 ft 440 kts 331°
2026-04-26 11:15 20.47179 60.03233 37854 ft 439 kts 331°
2026-04-26 11:16 20.52432 59.99887 37841 ft 439 kts 331°
2026-04-26 11:16 20.57678 59.96543 37848 ft 439 kts 330°
2026-04-26 11:17 20.62926 59.93194 37844 ft 439 kts 330°
2026-04-26 11:17 20.68166 59.89848 37847 ft 439 kts 330°
2026-04-26 11:18 20.73368 59.86523 37848 ft 438 kts 330°
2026-04-26 11:18 20.78607 59.83172 37845 ft 438 kts 330°
2026-04-26 11:19 20.83834 59.79826 37836 ft 438 kts 330°
2026-04-26 11:19 20.89063 59.76476 37836 ft 437 kts 330°
2026-04-26 11:20 20.93408 59.73689 37828 ft 437 kts 330°
2026-04-26 11:20 20.99482 59.69792 37831 ft 437 kts 330°
2026-04-26 11:21 21.04696 59.66438 37831 ft 437 kts 330°
2026-04-26 11:21 21.09913 59.63072 37838 ft 437 kts 330°
2026-04-26 11:22 21.15123 59.59709 37826 ft 437 kts 330°
2026-04-26 11:22 21.20328 59.56346 37816 ft 437 kts 330°
2026-04-26 11:23 21.25528 59.52984 37818 ft 436 kts 330°
2026-04-26 11:23 21.30697 59.49644 37817 ft 436 kts 330°
2026-04-26 11:24 21.35891 59.46285 37809 ft 436 kts 330°
2026-04-26 11:24 21.41092 59.42918 37811 ft 436 kts 330°
2026-04-26 11:25 21.46285 59.39553 37808 ft 435 kts 330°
2026-04-26 11:25 21.51472 59.36189 37814 ft 435 kts 330°
2026-04-26 11:26 21.56659 59.32822 37811 ft 436 kts 330°
2026-04-26 11:26 21.61818 59.29471 37810 ft 436 kts 329°
2026-04-26 11:27 21.67024 59.26095 37821 ft 435 kts 329°
2026-04-26 11:27 21.72216 59.22726 37820 ft 435 kts 329°
2026-04-26 11:28 21.77398 59.19359 37817 ft 435 kts 329°
2026-04-26 11:28 21.82550 59.16008 37821 ft 435 kts 329°
2026-04-26 11:29 21.87730 59.12637 37829 ft 435 kts 329°
2026-04-26 11:29 21.92914 59.09259 37829 ft 435 kts 329°
2026-04-26 11:30 21.97224 59.06449 37828 ft 435 kts 329°
2026-04-26 11:30 22.03271 59.02502 37832 ft 435 kts 329°
2026-04-26 11:31 22.08448 58.99120 37833 ft 435 kts 329°
2026-04-26 11:31 22.13617 58.95740 37843 ft 434 kts 329°
2026-04-26 11:32 22.18751 58.92373 37836 ft 434 kts 327°
2026-04-26 11:32 22.23265 58.88038 37847 ft 436 kts 313°
2026-04-26 11:33 22.26745 58.82644 37851 ft 441 kts 301°
2026-04-26 11:33 22.29593 58.76766 37846 ft 442 kts 301°
2026-04-26 11:34 22.32412 58.70900 37841 ft 441 kts 301°
2026-04-26 11:34 22.35261 58.65031 37849 ft 441 kts 301°
2026-04-26 11:35 22.38121 58.59177 37846 ft 440 kts 301°
2026-04-26 11:35 22.40502 58.54306 37849 ft 440 kts 301°
2026-04-26 11:36 22.43839 58.47473 37853 ft 440 kts 301°
2026-04-26 11:36 22.46675 58.41657 37849 ft 440 kts 301°
2026-04-26 11:37 22.49524 58.35807 37863 ft 440 kts 301°
2026-04-26 11:37 22.52374 58.29949 37856 ft 440 kts 301°
2026-04-26 11:38 22.55217 58.24097 37859 ft 439 kts 301°
2026-04-26 11:38 22.57583 58.19223 37855 ft 439 kts 301°
2026-04-26 11:39 22.60417 58.13377 37867 ft 439 kts 301°
2026-04-26 11:39 22.63250 58.07529 37868 ft 439 kts 301°
2026-04-26 11:40 22.66080 58.01678 37875 ft 439 kts 300°
2026-04-26 11:40 22.68908 57.95824 37871 ft 439 kts 300°
2026-04-26 11:42 22.80182 57.72421 37892 ft 438 kts 300°
2026-04-26 11:43 22.82990 57.66575 37894 ft 438 kts 300°
2026-04-26 11:43 22.85801 57.60717 37917 ft 437 kts 300°
2026-04-26 11:44 22.88610 57.54856 37916 ft 437 kts 300°
2026-04-26 11:44 22.91411 57.49003 37913 ft 437 kts 300°
2026-04-26 11:45 22.94213 57.43141 37924 ft 437 kts 300°
2026-04-26 11:45 22.96993 57.37318 37912 ft 437 kts 300°
2026-04-26 11:46 22.99795 57.31445 37930 ft 437 kts 300°
2026-04-26 11:46 23.02592 57.25580 37937 ft 437 kts 300°
2026-04-26 11:47 23.05398 57.19698 37923 ft 438 kts 300°
2026-04-26 11:47 23.08178 57.13860 37932 ft 438 kts 299°
2026-04-26 11:48 23.10973 57.07982 37939 ft 437 kts 299°
2026-04-26 11:48 23.13766 57.02103 37925 ft 437 kts 299°
2026-04-26 11:49 23.16549 56.96233 37937 ft 437 kts 299°
2026-04-26 11:49 23.19321 56.90384 37911 ft 438 kts 299°
2026-04-26 11:50 23.22124 56.84463 37918 ft 437 kts 299°
2026-04-26 11:50 23.24889 56.78614 37928 ft 437 kts 298°
2026-04-26 11:51 23.27666 56.72730 37894 ft 437 kts 298°
2026-04-26 11:51 23.30439 56.66850 37900 ft 436 kts 298°
2026-04-26 11:52 23.33203 56.60983 37893 ft 435 kts 298°
2026-04-26 11:52 23.35946 56.55150 37896 ft 435 kts 298°
2026-04-26 11:53 23.38703 56.49284 37903 ft 435 kts 298°
2026-04-26 11:54 23.42842 56.40459 37905 ft 436 kts 298°
2026-04-26 11:54 23.45601 56.34570 37896 ft 436 kts 298°
2026-04-26 11:55 23.48359 56.28673 37889 ft 436 kts 298°
2026-04-26 11:55 23.51089 56.22830 37895 ft 435 kts 298°
2026-04-26 11:56 23.53832 56.16953 37899 ft 435 kts 298°
2026-04-26 11:56 23.56570 56.11071 37906 ft 434 kts 298°
2026-04-26 11:57 23.59287 56.05187 37897 ft 434 kts 298°
2026-04-26 11:57 23.61999 55.99304 37889 ft 434 kts 297°
2026-04-26 11:58 23.64713 55.93414 37893 ft 434 kts 297°
2026-04-26 11:58 23.67423 55.87527 37882 ft 434 kts 297°
2026-04-26 11:59 23.70112 55.81679 37885 ft 433 kts 297°
2026-04-26 11:59 23.72830 55.75808 37878 ft 433 kts 297°
2026-04-26 12:00 23.75555 55.69939 37884 ft 433 kts 297°
2026-04-26 12:00 23.78279 55.64057 37893 ft 434 kts 297°
2026-04-26 12:01 23.80999 55.58170 37885 ft 434 kts 297°
2026-04-26 12:01 23.83712 55.52275 37876 ft 434 kts 296°
2026-04-26 12:02 23.86162 55.46253 37878 ft 434 kts 295°
2026-04-26 12:02 23.88608 55.40263 37875 ft 434 kts 295°
2026-04-26 12:03 23.91099 55.34252 37874 ft 434 kts 295°
2026-04-26 12:03 23.93905 55.28423 37875 ft 433 kts 303°
2026-04-26 12:04 23.97192 55.22887 37864 ft 434 kts 302°
2026-04-26 12:04 24.00454 55.17338 37871 ft 434 kts 302°
2026-04-26 12:05 24.03707 55.11768 37866 ft 434 kts 302°
2026-04-26 12:05 24.06936 55.06229 37871 ft 434 kts 302°
2026-04-26 12:06 24.10183 55.00654 37861 ft 434 kts 302°
2026-04-26 12:06 24.13435 54.95074 37871 ft 434 kts 302°
2026-04-26 12:07 24.16694 54.89511 37863 ft 434 kts 302°
2026-04-26 12:07 24.19957 54.83936 37861 ft 433 kts 302°
2026-04-26 12:08 24.23207 54.78373 37857 ft 433 kts 302°
2026-04-26 12:08 24.26452 54.72809 37856 ft 433 kts 302°
2026-04-26 12:09 24.29693 54.67245 37866 ft 433 kts 302°
2026-04-26 12:09 24.32918 54.61705 37863 ft 433 kts 302°
2026-04-26 12:10 24.36140 54.56130 37857 ft 433 kts 301°
2026-04-26 12:10 24.39802 54.50876 37858 ft 434 kts 310°
2026-04-26 12:11 24.44147 54.46267 37858 ft 436 kts 317°
2026-04-26 12:11 24.48882 54.42070 37878 ft 437 kts 318°
2026-04-26 12:12 24.53572 54.37874 37866 ft 437 kts 317°
2026-04-26 12:12 24.58165 54.33503 37868 ft 436 kts 315°
2026-04-26 12:13 24.62610 54.29020 37869 ft 436 kts 315°
2026-04-26 12:13 24.67093 54.24526 37861 ft 436 kts 315°
2026-04-26 12:14 24.71594 54.20049 37865 ft 436 kts 315°
2026-04-26 12:14 24.76088 54.15582 37879 ft 436 kts 315°
2026-04-26 12:15 24.80588 54.11103 37876 ft 435 kts 315°
2026-04-26 12:15 24.85190 54.06757 37859 ft 438 kts 320°
2026-04-26 12:16 24.90123 54.02881 37874 ft 438 kts 321°
2026-04-26 12:16 24.95085 53.98972 37867 ft 438 kts 320°
2026-04-26 12:17 25.00028 53.95051 37868 ft 438 kts 320°
2026-04-26 12:17 25.04973 53.91117 37865 ft 438 kts 320°
2026-04-26 12:18 25.09890 53.87202 37863 ft 438 kts 320°
2026-04-26 12:18 25.14824 53.83270 37868 ft 438 kts 320°
2026-04-26 12:19 25.19774 53.79322 37865 ft 438 kts 320°
2026-04-26 12:19 25.24506 53.75129 37864 ft 435 kts 316°
2026-04-26 12:20 25.29114 53.70828 37862 ft 436 kts 316°
2026-04-26 12:20 25.33762 53.66505 37873 ft 436 kts 316°
2026-04-26 12:21 25.38410 53.62193 37864 ft 436 kts 316°
2026-04-26 12:21 25.43052 53.57883 37863 ft 435 kts 316°
2026-04-26 12:22 25.47702 53.53565 37864 ft 435 kts 316°
2026-04-26 12:22 25.52308 53.49285 37877 ft 435 kts 316°
2026-04-26 12:23 25.56944 53.44968 37867 ft 435 kts 316°
2026-04-26 12:23 25.61568 53.40658 37860 ft 434 kts 315°
2026-04-26 12:24 25.66097 53.36283 37863 ft 433 kts 314°
2026-04-26 12:24 25.70607 53.31864 37881 ft 432 kts 314°
2026-04-26 12:25 25.77386 53.25251 37867 ft 432 kts 314°
2026-04-26 12:25 25.81091 53.21544 37863 ft 429 kts 310°
2026-04-26 12:26 25.84728 53.16360 37874 ft 424 kts 301°
2026-04-26 12:26 25.87531 53.10606 37873 ft 423 kts 293°
2026-04-26 12:27 25.89918 53.04626 37876 ft 424 kts 292°
2026-04-26 12:27 25.92314 52.98638 37866 ft 425 kts 293°
2026-04-26 12:28 25.94720 52.92679 37873 ft 425 kts 293°
2026-04-26 12:28 25.97147 52.86681 37875 ft 426 kts 293°
2026-04-26 12:29 25.99573 52.80674 37872 ft 426 kts 293°
2026-04-26 12:30 26.03274 52.71677 37890 ft 426 kts 295°
2026-04-26 12:30 26.05966 52.65811 37877 ft 425 kts 295°
2026-04-26 12:31 26.09951 52.57035 37880 ft 424 kts 295°
2026-04-26 12:31 26.12587 52.51174 37875 ft 423 kts 295°
2026-04-26 12:32 26.15243 52.45321 37884 ft 423 kts 295°
2026-04-26 12:33 26.19217 52.36544 37887 ft 423 kts 295°
2026-04-26 12:33 26.21858 52.30697 37883 ft 422 kts 295°
2026-04-26 12:34 26.24416 52.24855 37888 ft 422 kts 294°
2026-04-26 12:34 26.26954 52.18957 37881 ft 422 kts 294°
2026-04-26 12:35 26.29498 52.13063 37889 ft 422 kts 294°
2026-04-26 12:35 26.32042 52.07176 37904 ft 421 kts 293°
2026-04-26 12:36 26.34564 52.01283 37885 ft 421 kts 293°
2026-04-26 12:36 26.37076 51.95390 37886 ft 420 kts 292°
2026-04-26 12:37 26.39204 51.89331 37895 ft 419 kts 289°
2026-04-26 12:37 26.41212 51.83266 37912 ft 419 kts 289°
2026-04-26 12:38 26.43284 51.77139 37905 ft 419 kts 289°
2026-04-26 12:38 26.45337 51.71069 37904 ft 420 kts 289°
2026-04-26 12:39 26.47399 51.64977 37895 ft 419 kts 289°
2026-04-26 12:39 26.49450 51.58879 37898 ft 419 kts 288°
2026-04-26 12:40 26.51469 51.52780 37893 ft 419 kts 288°
2026-04-26 12:40 26.53474 51.46723 37899 ft 419 kts 288°
2026-04-26 12:41 26.55497 51.40610 37902 ft 419 kts 288°
2026-04-26 12:41 26.57515 51.34507 37913 ft 419 kts 288°
2026-04-26 12:42 26.59532 51.28397 37904 ft 418 kts 288°
2026-04-26 12:42 26.61542 51.22319 37903 ft 418 kts 288°
2026-04-26 12:43 26.63556 51.16222 37901 ft 418 kts 288°
2026-04-26 12:43 26.65563 51.10132 37904 ft 417 kts 288°
2026-04-26 12:44 26.67570 51.04035 37901 ft 417 kts 288°
2026-04-26 12:44 26.69550 50.97974 37914 ft 417 kts 288°
2026-04-26 12:45 26.71507 50.91869 37910 ft 417 kts 288°
2026-04-26 12:45 26.73464 50.85755 37914 ft 416 kts 287°
2026-04-26 12:46 26.75404 50.79694 37912 ft 416 kts 287°
2026-04-26 12:46 26.77354 50.73597 37906 ft 415 kts 287°
2026-04-26 12:47 26.79555 50.67606 37912 ft 418 kts 294°
2026-04-26 12:47 26.82518 50.61988 37907 ft 421 kts 299°
2026-04-26 12:48 26.86144 50.56799 37919 ft 423 kts 304°
2026-04-26 12:48 26.89875 50.51752 37908 ft 422 kts 304°
2026-04-26 12:49 26.93726 50.46757 37911 ft 424 kts 307°
2026-04-26 12:49 26.97790 50.41956 37923 ft 424 kts 307°
2026-04-26 12:50 27.01846 50.37147 37909 ft 424 kts 307°
2026-04-26 12:50 27.05886 50.32325 37915 ft 424 kts 307°
2026-04-26 12:51 27.09907 50.27476 37914 ft 424 kts 307°
2026-04-26 12:51 27.13925 50.22629 37930 ft 424 kts 307°
2026-04-26 12:52 27.18275 50.18133 37906 ft 433 kts 316°
2026-04-26 12:52 27.23151 50.14144 37915 ft 434 kts 316°
2026-04-26 12:53 27.28015 50.10133 37915 ft 434 kts 316°
2026-04-26 12:53 27.32890 50.06087 37915 ft 434 kts 316°
2026-04-26 12:54 27.37707 50.02056 37917 ft 433 kts 315°
2026-04-26 12:54 27.42462 49.97886 37916 ft 432 kts 315°
2026-04-26 12:55 27.47183 49.93706 37920 ft 432 kts 315°
2026-04-26 12:55 27.51922 49.89526 37927 ft 433 kts 315°
2026-04-26 12:56 27.56674 49.85342 37922 ft 434 kts 315°
2026-04-26 12:56 27.61428 49.81154 37921 ft 434 kts 315°
2026-04-26 12:57 27.66182 49.76961 37923 ft 434 kts 315°
2026-04-26 12:57 27.70909 49.72785 37921 ft 434 kts 315°
2026-04-26 12:58 27.78047 49.66473 37923 ft 434 kts 314°
2026-04-26 12:58 27.82787 49.62248 37923 ft 433 kts 314°
2026-04-26 12:59 27.87513 49.58017 37928 ft 433 kts 314°
2026-04-26 12:59 27.92242 49.53782 37925 ft 433 kts 314°
2026-04-26 13:00 27.96965 49.49549 37928 ft 432 kts 314°
2026-04-26 13:00 28.01656 49.45340 37953 ft 432 kts 314°
2026-04-26 13:01 28.06352 49.41096 37937 ft 431 kts 313°
2026-04-26 13:01 28.11030 49.36827 37917 ft 431 kts 313°
2026-04-26 13:02 28.15699 49.32564 37917 ft 431 kts 313°
2026-04-26 13:02 28.20377 49.28292 37931 ft 431 kts 313°
2026-04-26 13:03 28.25015 49.24053 37928 ft 431 kts 313°
2026-04-26 13:03 28.29678 49.19772 37927 ft 430 kts 313°
2026-04-26 13:04 28.34332 49.15472 37927 ft 430 kts 313°
2026-04-26 13:04 28.38982 49.11180 37934 ft 431 kts 314°
2026-04-26 13:05 28.43933 49.07243 37936 ft 436 kts 317°
2026-04-26 13:05 28.48960 49.03434 37928 ft 435 kts 317°
2026-04-26 13:06 28.53996 48.99595 37941 ft 435 kts 317°
2026-04-26 13:06 28.59017 48.95748 37931 ft 435 kts 317°
2026-04-26 13:07 28.64039 48.91892 37927 ft 435 kts 317°
2026-04-26 13:07 28.69050 48.88041 37926 ft 434 kts 317°
2026-04-26 13:08 28.74059 48.84186 37923 ft 434 kts 317°
2026-04-26 13:08 28.79065 48.80331 37922 ft 434 kts 317°
2026-04-26 13:09 28.84044 48.76503 37920 ft 434 kts 317°
2026-04-26 13:09 28.89057 48.72660 37941 ft 434 kts 317°
2026-04-26 13:10 28.94079 48.68804 37935 ft 435 kts 317°
2026-04-26 13:10 28.98253 48.65594 37939 ft 436 kts 317°
2026-04-26 13:11 29.00773 48.63652 38096 ft 437 kts 317°
2026-04-26 13:11 29.03293 48.61712 38363 ft 435 kts 316°
2026-04-26 13:11 29.05792 48.59789 38601 ft 433 kts 316°
2026-04-26 13:11 29.08290 48.57863 38758 ft 433 kts 316°
2026-04-26 13:12 29.10793 48.55931 38893 ft 433 kts 316°
2026-04-26 13:12 29.13291 48.54002 39034 ft 433 kts 316°
2026-04-26 13:12 29.15785 48.52074 39179 ft 433 kts 316°
2026-04-26 13:12 29.18278 48.50147 39310 ft 432 kts 316°
2026-04-26 13:13 29.20770 48.48219 39447 ft 432 kts 316°
2026-04-26 13:13 29.23260 48.46291 39606 ft 432 kts 316°
2026-04-26 13:13 29.25753 48.44360 39742 ft 431 kts 316°
2026-04-26 13:13 29.28238 48.42435 39827 ft 431 kts 316°
2026-04-26 13:14 29.33181 48.38600 39920 ft 432 kts 316°
2026-04-26 13:14 29.38190 48.34708 39940 ft 433 kts 316°
2026-04-26 13:15 29.43151 48.30859 39926 ft 434 kts 317°
2026-04-26 13:15 29.48398 48.27293 39926 ft 439 kts 321°
2026-04-26 13:16 29.53720 48.23833 39922 ft 439 kts 321°
2026-04-26 13:16 29.59031 48.20363 39929 ft 438 kts 320°
2026-04-26 13:17 29.66956 48.15146 39921 ft 437 kts 320°
2026-04-26 13:18 29.74862 48.09925 39928 ft 436 kts 320°
2026-04-26 13:19 29.82730 48.04720 39911 ft 436 kts 320°
2026-04-26 13:19 29.88005 48.01226 39903 ft 436 kts 320°
2026-04-26 13:20 29.93233 47.97758 39908 ft 436 kts 320°
2026-04-26 13:20 29.98487 47.94238 39898 ft 433 kts 317°
2026-04-26 13:21 30.03169 47.90042 39901 ft 422 kts 309°
2026-04-26 13:21 30.07219 47.85223 39905 ft 416 kts 303°
2026-04-26 13:22 30.10999 47.80148 39886 ft 417 kts 302°
2026-04-26 13:22 30.14784 47.75052 39878 ft 419 kts 303°
2026-04-26 13:23 30.18597 47.69940 39879 ft 420 kts 303°
2026-04-26 13:23 30.22426 47.64817 39886 ft 421 kts 303°
2026-04-26 13:24 30.26231 47.59722 39889 ft 421 kts 303°
2026-04-26 13:24 30.30066 47.54580 39885 ft 422 kts 302°
2026-04-26 13:25 30.33898 47.49434 39904 ft 421 kts 302°
2026-04-26 13:25 30.37730 47.44281 39887 ft 422 kts 302°
2026-04-26 13:26 30.41555 47.39129 39882 ft 421 kts 302°
2026-04-26 13:26 30.45362 47.33997 39877 ft 421 kts 302°
2026-04-26 13:27 30.49181 47.28839 39876 ft 421 kts 302°
2026-04-26 13:27 30.53002 47.23674 39865 ft 421 kts 302°
2026-04-26 13:28 30.56931 47.18635 39867 ft 427 kts 307°
2026-04-26 13:28 30.61531 47.14144 39869 ft 434 kts 312°
2026-04-26 13:29 30.66257 47.09774 39857 ft 434 kts 311°
2026-04-26 13:29 30.70970 47.05392 39861 ft 433 kts 311°
2026-04-26 13:30 30.75640 47.01029 39879 ft 433 kts 311°
2026-04-26 13:30 30.80340 46.96625 39855 ft 433 kts 311°
2026-04-26 13:31 30.85040 46.92216 39850 ft 433 kts 311°
2026-04-26 13:31 30.89733 46.87808 39851 ft 434 kts 311°
2026-04-26 13:32 30.94433 46.83387 39861 ft 434 kts 311°
2026-04-26 13:32 30.99120 46.78974 39843 ft 435 kts 311°
2026-04-26 13:33 31.03824 46.74539 39841 ft 435 kts 311°
2026-04-26 13:33 31.08528 46.70098 39852 ft 435 kts 311°
2026-04-26 13:34 31.13213 46.65669 39842 ft 435 kts 311°
2026-04-26 13:34 31.17926 46.61208 39845 ft 435 kts 311°
2026-04-26 13:35 31.22628 46.56751 39851 ft 436 kts 311°
2026-04-26 13:35 31.27338 46.52280 39847 ft 436 kts 311°
2026-04-26 13:36 31.32042 46.47809 39840 ft 436 kts 311°
2026-04-26 13:36 31.36751 46.43328 39852 ft 436 kts 311°
2026-04-26 13:37 31.41458 46.38843 39849 ft 436 kts 311°
2026-04-26 13:37 31.46143 46.34372 39845 ft 436 kts 311°
2026-04-26 13:38 31.50847 46.29877 39860 ft 437 kts 311°
2026-04-26 13:38 31.55557 46.25370 39856 ft 437 kts 311°
2026-04-26 13:39 31.60269 46.20856 39860 ft 437 kts 311°
2026-04-26 13:39 31.64992 46.16325 39870 ft 438 kts 311°
2026-04-26 13:40 31.69710 46.11792 39871 ft 438 kts 311°
2026-04-26 13:40 31.74429 46.07253 39874 ft 438 kts 311°
2026-04-26 13:41 31.79082 46.02699 39887 ft 438 kts 310°
2026-04-26 13:41 31.83738 45.98059 39878 ft 438 kts 310°
2026-04-26 13:42 31.88395 45.93416 39888 ft 438 kts 310°
2026-04-26 13:42 31.93056 45.88772 39891 ft 439 kts 310°
2026-04-26 13:43 31.97727 45.84116 39879 ft 439 kts 310°
2026-04-26 13:43 32.02388 45.79465 39895 ft 439 kts 310°
2026-04-26 13:44 32.07023 45.74834 39892 ft 439 kts 310°
2026-04-26 13:44 32.11681 45.70172 39899 ft 439 kts 310°
2026-04-26 13:45 32.16349 45.65495 39898 ft 439 kts 310°
2026-04-26 13:45 32.20985 45.60841 39914 ft 440 kts 310°
2026-04-26 13:46 32.25655 45.56148 39910 ft 440 kts 310°
2026-04-26 13:46 32.30320 45.51453 39918 ft 440 kts 310°
2026-04-26 13:47 32.34989 45.46747 39935 ft 442 kts 310°
2026-04-26 13:47 32.39664 45.42028 39933 ft 442 kts 310°
2026-04-26 13:48 32.44341 45.37302 39909 ft 442 kts 310°
2026-04-26 13:48 32.49025 45.32560 39934 ft 443 kts 310°
2026-04-26 13:49 32.53709 45.27815 39926 ft 443 kts 311°
2026-04-26 13:49 32.58703 45.23466 39968 ft 452 kts 317°
2026-04-26 13:50 32.63965 45.19349 39940 ft 453 kts 317°
2026-04-26 13:50 32.69211 45.15229 39927 ft 452 kts 317°
2026-04-26 13:51 32.74454 45.11078 39934 ft 453 kts 317°
2026-04-26 13:51 32.79694 45.06912 39928 ft 453 kts 317°
2026-04-26 13:52 32.84892 45.02773 39926 ft 453 kts 317°
2026-04-26 13:52 32.90129 44.98598 39949 ft 453 kts 317°
2026-04-26 13:53 32.95374 44.94412 39935 ft 453 kts 317°
2026-04-26 13:53 33.00599 44.90235 39930 ft 452 kts 316°
2026-04-26 13:54 33.05822 44.86053 39935 ft 451 kts 316°
2026-04-26 13:54 33.11033 44.81874 39931 ft 451 kts 316°
2026-04-26 13:55 33.17092 44.77010 39942 ft 452 kts 317°
2026-04-26 13:55 33.23773 44.72973 39934 ft 468 kts 329°
2026-04-26 13:56 33.27911 44.71353 39937 ft 478 kts 335°
2026-04-26 13:56 33.33300 44.69757 39942 ft 480 kts 336°
2026-04-26 13:57 33.39815 44.67916 39936 ft 480 kts 336°
2026-04-26 13:57 33.46314 44.66045 39936 ft 480 kts 336°
2026-04-26 13:58 33.52808 44.64138 39940 ft 480 kts 336°
2026-04-26 13:58 33.59288 44.62218 39959 ft 480 kts 336°
2026-04-26 13:59 33.65745 44.60299 39943 ft 480 kts 336°
2026-04-26 13:59 33.72232 44.58373 39940 ft 480 kts 336°
2026-04-26 14:00 33.85199 44.54514 39944 ft 480 kts 336°
2026-04-26 14:01 33.91680 44.52581 39950 ft 480 kts 336°
2026-04-26 14:01 33.98159 44.50645 39940 ft 480 kts 336°
2026-04-26 14:02 34.04644 44.48704 39958 ft 479 kts 336°
2026-04-26 14:02 34.11076 44.46776 39945 ft 479 kts 336°
2026-04-26 14:03 34.17563 44.44829 39941 ft 479 kts 336°
2026-04-26 14:03 34.24039 44.42882 39942 ft 479 kts 336°
2026-04-26 14:04 34.30516 44.40930 39954 ft 480 kts 337°
2026-04-26 14:04 34.36954 44.38989 39953 ft 479 kts 337°
2026-04-26 14:05 34.43441 44.37030 39948 ft 479 kts 337°
2026-04-26 14:05 34.49883 44.35080 39959 ft 479 kts 337°
2026-04-26 14:06 34.56352 44.33120 39939 ft 479 kts 337°
2026-04-26 14:06 34.62817 44.31158 39954 ft 479 kts 337°
2026-04-26 14:07 34.69279 44.29193 39977 ft 479 kts 337°
2026-04-26 14:07 34.75749 44.27222 39949 ft 479 kts 337°
2026-04-26 14:08 34.82205 44.25253 39952 ft 478 kts 337°
2026-04-26 14:08 34.88627 44.23291 39954 ft 478 kts 337°
2026-04-26 14:09 34.95078 44.21315 39951 ft 478 kts 338°
2026-04-26 14:09 35.01529 44.19339 39952 ft 478 kts 338°
2026-04-26 14:10 35.07988 44.17357 39952 ft 477 kts 338°
2026-04-26 14:10 35.14419 44.15379 39964 ft 477 kts 338°
2026-04-26 14:11 35.24053 44.12410 39951 ft 478 kts 338°
2026-04-26 14:11 35.30505 44.10417 39951 ft 478 kts 338°
2026-04-26 14:12 35.36954 44.08423 39958 ft 478 kts 338°
2026-04-26 14:12 35.43417 44.06421 39952 ft 479 kts 338°
2026-04-26 14:13 35.53116 44.03410 39954 ft 479 kts 338°
2026-04-26 14:14 35.59582 44.01399 39963 ft 479 kts 338°
2026-04-26 14:14 35.66017 43.99393 39953 ft 480 kts 338°
2026-04-26 14:15 35.72498 43.97371 39964 ft 480 kts 338°
2026-04-26 14:15 35.78976 43.95345 39963 ft 481 kts 339°
2026-04-26 14:16 35.85471 43.93311 39961 ft 481 kts 339°
2026-04-26 14:16 35.91971 43.91272 39970 ft 482 kts 339°
2026-04-26 14:17 35.98432 43.89242 39978 ft 482 kts 339°
2026-04-26 14:17 36.04937 43.87194 39991 ft 482 kts 339°
2026-04-26 14:18 36.11440 43.85143 39996 ft 482 kts 339°
2026-04-26 14:18 36.17945 43.83089 39988 ft 482 kts 339°
2026-04-26 14:19 36.24450 43.81031 39990 ft 482 kts 339°
2026-04-26 14:19 36.30798 43.78532 39987 ft 474 kts 331°
2026-04-26 14:20 36.36879 43.75334 39992 ft 474 kts 330°
2026-04-26 14:20 36.42914 43.72135 39978 ft 475 kts 330°
2026-04-26 14:21 36.49022 43.68943 39971 ft 476 kts 331°
2026-04-26 14:21 36.55143 43.65761 39985 ft 477 kts 331°
2026-04-26 14:22 36.61269 43.62571 39983 ft 477 kts 331°
2026-04-26 14:22 36.67403 43.59367 39986 ft 477 kts 331°
2026-04-26 14:23 36.73490 43.56183 39990 ft 477 kts 331°
2026-04-26 14:23 36.79572 43.52897 40001 ft 476 kts 330°
2026-04-26 14:24 36.85626 43.49489 40022 ft 476 kts 330°
2026-04-26 14:24 36.91669 43.46086 40015 ft 477 kts 330°
2026-04-26 14:25 36.97721 43.42693 40053 ft 477 kts 330°
2026-04-26 14:25 37.03792 43.39292 40043 ft 478 kts 330°
2026-04-26 14:26 37.09818 43.35909 40044 ft 478 kts 330°
2026-04-26 14:26 37.15888 43.32494 40065 ft 478 kts 330°
2026-04-26 14:27 37.21961 43.29071 40074 ft 477 kts 330°
2026-04-26 14:27 37.27993 43.25665 40086 ft 477 kts 330°
2026-04-26 14:28 37.33703 43.21637 40090 ft 464 kts 314°
2026-04-26 14:28 37.37783 43.15546 40082 ft 449 kts 294°
2026-04-26 14:29 37.40684 43.08575 40115 ft 451 kts 293°
2026-04-26 14:29 37.43595 43.01552 40100 ft 453 kts 294°
2026-04-26 14:30 37.46551 42.94537 40093 ft 453 kts 293°
2026-04-26 14:30 37.49506 42.87559 40099 ft 454 kts 294°
2026-04-26 14:31 37.52477 42.80528 40109 ft 455 kts 294°
2026-04-26 14:31 37.55446 42.73480 40106 ft 455 kts 294°
2026-04-26 14:32 37.58405 42.66446 40103 ft 454 kts 294°
2026-04-26 14:32 37.61371 42.59409 40098 ft 454 kts 294°
2026-04-26 14:33 37.64343 42.52370 40106 ft 454 kts 294°
2026-04-26 14:33 37.67305 42.45335 40101 ft 454 kts 294°
2026-04-26 14:34 37.70261 42.38295 40116 ft 454 kts 293°
2026-04-26 14:34 37.73198 42.31281 40106 ft 454 kts 293°
2026-04-26 14:35 37.76152 42.24215 40099 ft 455 kts 293°
2026-04-26 14:35 37.79107 42.17129 40095 ft 455 kts 293°
2026-04-26 14:36 37.82062 42.10026 40089 ft 454 kts 293°
2026-04-26 14:36 37.84984 42.02984 40098 ft 456 kts 293°
2026-04-26 14:37 37.87929 41.95878 40104 ft 456 kts 293°
2026-04-26 14:37 37.91030 41.88849 40081 ft 460 kts 299°
2026-04-26 14:38 37.95010 41.82433 40088 ft 465 kts 306°
2026-04-26 14:38 37.99319 41.76327 40106 ft 465 kts 307°
2026-04-26 14:39 38.03620 41.70206 40113 ft 465 kts 306°
2026-04-26 14:39 38.07902 41.64053 40100 ft 465 kts 306°
2026-04-26 14:40 38.12149 41.57917 40110 ft 465 kts 306°
2026-04-26 14:40 38.16418 41.51736 40098 ft 465 kts 306°
2026-04-26 14:41 38.20687 41.45544 40091 ft 465 kts 306°
2026-04-26 14:41 38.24232 41.40395 40119 ft 465 kts 306°
2026-04-26 14:42 38.28487 41.34205 40121 ft 465 kts 306°
2026-04-26 14:42 38.32750 41.27988 40095 ft 465 kts 306°
2026-04-26 14:43 38.36995 41.21788 40124 ft 464 kts 306°
2026-04-26 14:43 38.41233 41.15582 40106 ft 464 kts 306°
2026-04-26 14:44 38.45442 41.09411 40116 ft 464 kts 306°
2026-04-26 14:44 38.49627 41.03152 40122 ft 463 kts 305°
2026-04-26 14:45 38.53753 40.96820 40122 ft 463 kts 305°
2026-04-26 14:45 38.57886 40.90484 40112 ft 463 kts 306°
2026-04-26 14:46 38.62021 40.84157 40131 ft 464 kts 306°
2026-04-26 14:46 38.66185 40.77820 40121 ft 466 kts 306°
2026-04-26 14:47 38.70401 40.71505 40133 ft 466 kts 306°
2026-04-26 14:47 38.74585 40.65146 40128 ft 467 kts 306°
2026-04-26 14:48 38.78772 40.58772 40113 ft 468 kts 306°
2026-04-26 14:48 38.82945 40.52427 40108 ft 467 kts 306°
2026-04-26 14:49 38.87129 40.46055 40114 ft 467 kts 306°
2026-04-26 14:49 38.91311 40.39668 40110 ft 466 kts 306°
2026-04-26 14:50 38.95446 40.33340 40104 ft 465 kts 306°
2026-04-26 14:50 38.99610 40.26955 40099 ft 465 kts 306°
2026-04-26 14:51 39.03757 40.20583 40105 ft 464 kts 306°
2026-04-26 14:51 39.07906 40.14194 40089 ft 465 kts 306°
2026-04-26 14:52 39.12055 40.07792 40106 ft 466 kts 306°
2026-04-26 14:52 39.16200 40.01385 40099 ft 466 kts 306°
2026-04-26 14:53 39.20327 39.94995 40082 ft 466 kts 306°
2026-04-26 14:53 39.24473 39.88566 40087 ft 466 kts 306°
2026-04-26 14:54 39.28621 39.82123 40071 ft 467 kts 306°
2026-04-26 14:54 39.32777 39.75661 40048 ft 467 kts 306°
2026-04-26 14:55 39.36909 39.69213 40068 ft 466 kts 306°
2026-04-26 14:55 39.41035 39.62751 40069 ft 466 kts 306°
2026-04-26 14:56 39.45163 39.56283 40078 ft 466 kts 306°
2026-04-26 14:56 39.49300 39.49797 40078 ft 468 kts 306°
2026-04-26 14:57 39.53403 39.43297 40077 ft 468 kts 305°
2026-04-26 14:57 39.57473 39.36731 40044 ft 466 kts 305°
2026-04-26 14:58 39.61539 39.30154 40028 ft 468 kts 305°
2026-04-26 14:58 39.65618 39.23558 40047 ft 468 kts 305°
2026-04-26 14:59 39.69704 39.16943 40051 ft 469 kts 305°
2026-04-26 14:59 39.73771 39.10351 40044 ft 470 kts 306°
2026-04-26 15:00 39.77902 39.03766 40016 ft 469 kts 306°
2026-04-26 15:00 39.82035 38.97195 40030 ft 468 kts 306°
2026-04-26 15:01 39.86146 38.90632 40020 ft 467 kts 306°
2026-04-26 15:01 39.90243 38.84066 40013 ft 466 kts 306°
2026-04-26 15:02 39.94328 38.77500 40008 ft 466 kts 306°
2026-04-26 15:02 39.98380 38.70976 40008 ft 466 kts 306°
2026-04-26 15:03 40.02456 38.64400 39997 ft 465 kts 306°
2026-04-26 15:03 40.06522 38.57827 39999 ft 465 kts 306°
2026-04-26 15:04 40.10595 38.51229 40008 ft 466 kts 306°
2026-04-26 15:04 40.14636 38.44667 39995 ft 466 kts 306°
2026-04-26 15:05 40.18704 38.38049 39984 ft 466 kts 306°
2026-04-26 15:05 40.22761 38.31434 39995 ft 466 kts 306°
2026-04-26 15:06 40.26819 38.24802 39988 ft 466 kts 306°
2026-04-26 15:06 40.30848 38.18133 39980 ft 465 kts 302°
2026-04-26 15:07 40.35290 38.07034 39986 ft 459 kts 289°
2026-04-26 15:07 40.37587 37.99228 39987 ft 459 kts 289°
2026-04-26 15:08 40.39897 37.91415 39992 ft 460 kts 289°
2026-04-26 15:08 40.42235 37.83588 39992 ft 461 kts 289°
2026-04-26 15:09 40.44577 37.75748 39982 ft 462 kts 289°
2026-04-26 15:09 40.46906 37.67923 39981 ft 462 kts 289°
2026-04-26 15:10 40.48848 37.61381 39981 ft 462 kts 289°
2026-04-26 15:10 40.51577 37.52167 39980 ft 463 kts 289°
2026-04-26 15:11 40.53910 37.44265 39964 ft 463 kts 289°
2026-04-26 15:11 40.56233 37.36369 39957 ft 463 kts 289°
2026-04-26 15:12 40.58548 37.28475 39962 ft 462 kts 289°
2026-04-26 15:12 40.60857 37.20581 39947 ft 462 kts 289°
2026-04-26 15:13 40.63144 37.12737 39945 ft 462 kts 289°
2026-04-26 15:13 40.65444 37.04828 39950 ft 462 kts 289°
2026-04-26 15:14 40.67735 36.96921 39947 ft 462 kts 289°
2026-04-26 15:14 40.70025 36.88997 39933 ft 462 kts 289°
2026-04-26 15:15 40.72310 36.81064 39936 ft 463 kts 289°
2026-04-26 15:15 40.74576 36.73173 39936 ft 463 kts 289°
2026-04-26 15:16 40.76853 36.65226 39944 ft 463 kts 289°
2026-04-26 15:16 40.79135 36.57270 39938 ft 463 kts 289°
2026-04-26 15:17 40.81032 36.50647 39934 ft 463 kts 289°
2026-04-26 15:17 40.83675 36.41388 39933 ft 463 kts 289°
2026-04-26 15:18 40.85945 36.33407 39936 ft 463 kts 289°
2026-04-26 15:18 40.88202 36.25447 39937 ft 462 kts 289°
2026-04-26 15:19 40.90440 36.17525 39935 ft 462 kts 289°
2026-04-26 15:19 40.92687 36.09554 39938 ft 462 kts 289°
2026-04-26 15:20 40.94911 36.01576 39927 ft 462 kts 288°
2026-04-26 15:20 40.97096 35.93575 39924 ft 462 kts 288°
2026-04-26 15:21 40.99285 35.85563 39920 ft 462 kts 288°
2026-04-26 15:21 41.01503 35.77555 39926 ft 462 kts 289°
2026-04-26 15:22 41.03714 35.69601 39916 ft 462 kts 289°
2026-04-26 15:22 41.05925 35.61607 39904 ft 462 kts 289°
2026-04-26 15:23 41.08130 35.53599 39898 ft 462 kts 289°
2026-04-26 15:23 41.10335 35.45603 39902 ft 461 kts 289°
2026-04-26 15:24 41.12516 35.37590 39907 ft 461 kts 288°
2026-04-26 15:24 41.14684 35.29615 39909 ft 462 kts 289°
2026-04-26 15:25 41.16514 35.22888 39914 ft 462 kts 289°
2026-04-26 15:25 41.19048 35.13542 39906 ft 462 kts 288°
2026-04-26 15:26 41.21217 35.05508 39903 ft 462 kts 288°
2026-04-26 15:26 41.23380 34.97470 39907 ft 462 kts 288°
2026-04-26 15:27 41.25178 34.90769 39903 ft 462 kts 289°
2026-04-26 15:27 41.27680 34.81402 39900 ft 462 kts 288°
2026-04-26 15:28 41.29471 34.74696 39904 ft 461 kts 288°
2026-04-26 15:28 41.31962 34.65333 39913 ft 461 kts 288°
2026-04-26 15:29 41.33749 34.58600 39911 ft 460 kts 289°
2026-04-26 15:30 41.37971 34.42575 39916 ft 459 kts 288°
2026-04-26 15:30 41.40074 34.34567 39939 ft 458 kts 288°
2026-04-26 15:31 41.43183 34.22532 39935 ft 457 kts 288°
2026-04-26 15:32 41.45918 34.11879 39932 ft 456 kts 288°
2026-04-26 15:32 41.48312 34.02586 39949 ft 455 kts 288°
2026-04-26 15:33 41.50358 33.94626 39946 ft 454 kts 288°
2026-04-26 15:33 41.52398 33.86655 39948 ft 453 kts 288°
2026-04-26 15:34 41.54428 33.78697 39954 ft 453 kts 288°
2026-04-26 15:34 41.56452 33.70735 39964 ft 452 kts 288°
2026-04-26 15:35 41.58467 33.62786 39959 ft 452 kts 288°
2026-04-26 15:35 41.60457 33.54861 39966 ft 451 kts 287°
2026-04-26 15:36 41.62429 33.46909 39973 ft 451 kts 288°
2026-04-26 15:36 41.64440 33.38955 39975 ft 451 kts 288°
2026-04-26 15:37 41.66449 33.30987 39973 ft 451 kts 288°
2026-04-26 15:37 41.68441 33.23033 39979 ft 451 kts 288°
2026-04-26 15:38 41.70426 33.15072 39972 ft 451 kts 288°
2026-04-26 15:38 41.72397 33.07150 39975 ft 451 kts 288°
2026-04-26 15:39 41.74365 32.99177 39977 ft 451 kts 287°
2026-04-26 15:39 41.75992 32.92475 39975 ft 451 kts 287°
2026-04-26 15:40 41.78241 32.83184 39969 ft 451 kts 287°
2026-04-26 15:40 41.80175 32.75184 39974 ft 451 kts 287°
2026-04-26 15:41 41.82132 32.67202 39974 ft 451 kts 288°
2026-04-26 15:41 41.84099 32.59214 39967 ft 451 kts 288°
2026-04-26 15:42 41.86038 32.51285 39973 ft 450 kts 288°
2026-04-26 15:42 41.87973 32.43291 39973 ft 450 kts 287°
2026-04-26 15:43 41.89840 32.35272 39968 ft 449 kts 287°
2026-04-26 15:44 41.92703 32.23290 39967 ft 449 kts 287°
2026-04-26 15:44 41.95542 32.11338 39968 ft 449 kts 287°
2026-04-26 15:45 41.98380 31.99324 39965 ft 449 kts 287°
2026-04-26 15:46 42.01205 31.87305 39968 ft 449 kts 287°
2026-04-26 15:46 42.02764 31.80641 39967 ft 449 kts 287°
2026-04-26 15:47 42.05882 31.67246 39961 ft 449 kts 287°
2026-04-26 15:48 42.07730 31.59272 39961 ft 449 kts 287°
2026-04-26 15:48 42.09589 31.51220 39958 ft 449 kts 287°
2026-04-26 15:49 42.11440 31.43184 39955 ft 449 kts 287°
2026-04-26 15:49 42.13289 31.35127 39951 ft 449 kts 287°
2026-04-26 15:50 42.15121 31.27144 39951 ft 449 kts 287°
2026-04-26 15:50 42.16963 31.19088 39953 ft 449 kts 287°
2026-04-26 15:51 42.18796 31.11042 39953 ft 448 kts 287°
2026-04-26 15:51 42.20620 31.03004 39950 ft 448 kts 287°
2026-04-26 15:52 42.22441 30.94947 39946 ft 448 kts 287°
2026-04-26 15:52 42.24241 30.86953 39947 ft 448 kts 287°
2026-04-26 15:53 42.26045 30.78914 39946 ft 447 kts 287°
2026-04-26 15:53 42.27844 30.70868 39944 ft 447 kts 287°
2026-04-26 15:54 42.29637 30.62821 39945 ft 447 kts 287°
2026-04-26 15:54 42.31421 30.54782 39938 ft 447 kts 287°
2026-04-26 15:55 42.33199 30.46742 39940 ft 446 kts 287°
2026-04-26 15:55 42.34972 30.38692 39939 ft 446 kts 287°
2026-04-26 15:56 42.36741 30.30631 39944 ft 446 kts 287°
2026-04-26 15:56 42.38488 30.22640 39929 ft 446 kts 287°
2026-04-26 15:57 42.40244 30.14578 39935 ft 446 kts 287°
2026-04-26 15:57 42.41990 30.06531 39932 ft 446 kts 287°
2026-04-26 15:58 42.43727 29.98498 39931 ft 446 kts 287°
2026-04-26 15:58 42.45607 29.90492 39932 ft 445 kts 293°
2026-04-26 15:59 42.48453 29.83056 39931 ft 445 kts 301°
2026-04-26 15:59 42.52091 29.76251 39939 ft 446 kts 306°
2026-04-26 16:00 42.55848 29.69616 39930 ft 446 kts 306°
2026-04-26 16:00 42.59620 29.62914 39931 ft 446 kts 306°
2026-04-26 16:01 42.63363 29.56195 39929 ft 447 kts 306°
2026-04-26 16:01 42.67104 29.49442 39912 ft 447 kts 306°
2026-04-26 16:02 42.70821 29.42713 39907 ft 447 kts 306°
2026-04-26 16:02 42.74551 29.35944 39909 ft 447 kts 306°
2026-04-26 16:03 42.78283 29.29160 39927 ft 447 kts 306°
2026-04-26 16:03 42.82006 29.22376 39926 ft 447 kts 306°
2026-04-26 16:04 42.85725 29.15584 39904 ft 447 kts 306°
2026-04-26 16:04 42.89439 29.08785 39901 ft 447 kts 306°
2026-04-26 16:05 42.93133 29.02007 39905 ft 447 kts 305°
2026-04-26 16:05 42.96526 28.94904 39904 ft 446 kts 301°
2026-04-26 16:06 42.99716 28.87629 39922 ft 446 kts 300°
2026-04-26 16:06 43.02907 28.80344 39923 ft 447 kts 301°
2026-04-26 16:07 43.06120 28.73070 39901 ft 447 kts 301°
2026-04-26 16:07 43.09345 28.65795 39898 ft 447 kts 301°
2026-04-26 16:08 43.12572 28.58504 39895 ft 448 kts 301°
2026-04-26 16:08 43.15797 28.51200 39904 ft 448 kts 301°
2026-04-26 16:09 43.19000 28.43926 39915 ft 448 kts 301°
2026-04-26 16:09 43.22212 28.36612 39915 ft 448 kts 301°
2026-04-26 16:10 43.25423 28.29282 39913 ft 448 kts 301°
2026-04-26 16:10 43.28611 28.21987 39895 ft 448 kts 301°
2026-04-26 16:11 43.31807 28.14654 39875 ft 447 kts 301°
2026-04-26 16:11 43.35002 28.07306 39869 ft 447 kts 301°
2026-04-26 16:12 43.38194 27.99945 39884 ft 447 kts 301°
2026-04-26 16:12 43.42430 27.90148 39867 ft 448 kts 301°
2026-04-26 16:13 43.46127 27.81573 39878 ft 448 kts 301°
2026-04-26 16:13 43.49296 27.74199 39876 ft 447 kts 301°
2026-04-26 16:14 43.51931 27.68055 39873 ft 447 kts 301°
2026-04-26 16:15 43.56670 27.56970 39865 ft 447 kts 301°
2026-04-26 16:15 43.59828 27.49560 39876 ft 447 kts 301°
2026-04-26 16:16 43.64551 27.38445 39889 ft 447 kts 301°
2026-04-26 16:16 43.67671 27.31076 39862 ft 447 kts 301°
2026-04-26 16:17 43.70808 27.23651 39868 ft 447 kts 301°
2026-04-26 16:17 43.73944 27.16206 39867 ft 448 kts 301°
2026-04-26 16:18 43.78646 27.05009 39886 ft 448 kts 301°
2026-04-26 16:19 43.83323 26.93828 39874 ft 447 kts 300°
2026-04-26 16:20 43.87963 26.82693 39877 ft 446 kts 300°
2026-04-26 16:20 43.92602 26.71517 39875 ft 445 kts 300°
2026-04-26 16:21 43.95681 26.64073 39875 ft 444 kts 300°
2026-04-26 16:21 43.98752 26.56631 39888 ft 443 kts 300°
2026-04-26 16:22 44.01783 26.49268 39878 ft 441 kts 300°
2026-04-26 16:22 44.04820 26.41870 39879 ft 440 kts 300°
2026-04-26 16:23 44.07845 26.34480 39878 ft 439 kts 300°
2026-04-26 16:23 44.10856 26.27108 39875 ft 438 kts 300°
2026-04-26 16:24 44.13861 26.19731 39883 ft 437 kts 300°
2026-04-26 16:24 44.16858 26.12353 39888 ft 437 kts 300°
2026-04-26 16:25 44.19850 26.04971 39884 ft 437 kts 300°
2026-04-26 16:25 44.22813 25.97638 39884 ft 436 kts 300°
2026-04-26 16:26 44.25791 25.90251 39885 ft 436 kts 300°
2026-04-26 16:26 44.28763 25.82858 39887 ft 436 kts 300°
2026-04-26 16:27 44.31735 25.75447 39892 ft 436 kts 300°
2026-04-26 16:27 44.34697 25.68042 39892 ft 437 kts 300°
2026-04-26 16:28 44.37632 25.60683 39892 ft 437 kts 299°
2026-04-26 16:28 44.40587 25.53255 39894 ft 437 kts 299°
2026-04-26 16:29 44.43545 25.45802 39901 ft 438 kts 299°
2026-04-26 16:29 44.46497 25.38342 39907 ft 438 kts 299°
2026-04-26 16:30 44.49451 25.30860 39905 ft 439 kts 299°
2026-04-26 16:30 44.52405 25.23359 39920 ft 439 kts 298°
2026-04-26 16:31 44.55346 25.15865 39920 ft 439 kts 299°
2026-04-26 16:31 44.58278 25.08377 39921 ft 438 kts 298°
2026-04-26 16:32 44.60717 25.02131 39930 ft 438 kts 298°
2026-04-26 16:32 44.64138 24.93350 39928 ft 438 kts 298°
2026-04-26 16:33 44.67041 24.85876 39930 ft 438 kts 299°
2026-04-26 16:33 44.69959 24.78343 39944 ft 438 kts 298°
2026-04-26 16:34 44.72874 24.70798 39942 ft 439 kts 298°
2026-04-26 16:34 44.75782 24.63248 39955 ft 439 kts 298°
2026-04-26 16:35 44.78687 24.55687 39955 ft 439 kts 298°
2026-04-26 16:35 44.81588 24.48117 39961 ft 439 kts 298°
2026-04-26 16:36 44.84484 24.40538 39973 ft 439 kts 298°
2026-04-26 16:36 44.87377 24.32948 39970 ft 440 kts 298°
2026-04-26 16:37 44.90264 24.25352 39972 ft 439 kts 298°
2026-04-26 16:37 44.93127 24.17796 39983 ft 439 kts 298°
2026-04-26 16:38 44.96003 24.10187 39986 ft 439 kts 298°
2026-04-26 16:38 44.98872 24.02575 39984 ft 438 kts 298°
2026-04-26 16:39 45.01732 23.94967 39979 ft 438 kts 298°
2026-04-26 16:39 45.04584 23.87356 40006 ft 438 kts 298°
2026-04-26 16:40 45.07432 23.79737 40005 ft 437 kts 298°
2026-04-26 16:40 45.10269 23.72129 40002 ft 437 kts 298°
2026-04-26 16:41 45.13080 23.64565 40026 ft 436 kts 298°
2026-04-26 16:41 45.15901 23.56955 40024 ft 435 kts 298°
2026-04-26 16:42 45.18708 23.49363 40017 ft 434 kts 298°
2026-04-26 16:42 45.21502 23.41781 40028 ft 433 kts 298°
2026-04-26 16:43 45.24286 23.34210 40034 ft 433 kts 298°
2026-04-26 16:43 45.27045 23.26686 40036 ft 433 kts 298°
2026-04-26 16:44 45.29819 23.19097 40037 ft 433 kts 298°
2026-04-26 16:44 45.32592 23.11492 40045 ft 433 kts 298°
2026-04-26 16:45 45.35359 23.03882 40048 ft 433 kts 298°
2026-04-26 16:45 45.38119 22.96270 40050 ft 434 kts 298°
2026-04-26 16:46 45.40873 22.88654 40069 ft 436 kts 298°
2026-04-26 16:46 45.43655 22.80932 40070 ft 438 kts 297°
2026-04-26 16:47 45.46434 22.73202 40084 ft 439 kts 297°
2026-04-26 16:47 45.49217 22.65446 40085 ft 440 kts 297°
2026-04-26 16:48 45.52005 22.57658 40087 ft 442 kts 297°
2026-04-26 16:48 45.54785 22.49824 40100 ft 442 kts 296°
2026-04-26 16:49 45.57557 22.42028 40104 ft 443 kts 297°
2026-04-26 16:49 45.60344 22.34167 40099 ft 443 kts 296°
2026-04-26 16:50 45.63117 22.26318 40109 ft 442 kts 296°
2026-04-26 16:50 45.65872 22.18499 40106 ft 442 kts 296°
2026-04-26 16:51 45.68637 22.10627 40102 ft 442 kts 296°
2026-04-26 16:51 45.71397 22.02744 40100 ft 442 kts 296°
2026-04-26 16:52 45.73223 21.97518 40108 ft 442 kts 296°
2026-04-26 16:52 45.76891 21.86985 40108 ft 442 kts 296°
2026-04-26 16:53 45.79625 21.79108 40110 ft 441 kts 296°
2026-04-26 16:53 45.82334 21.71281 40110 ft 441 kts 296°
2026-04-26 16:54 45.85057 21.63390 40112 ft 441 kts 296°
2026-04-26 16:54 45.87774 21.55489 40108 ft 441 kts 296°
2026-04-26 16:55 45.90485 21.47587 40103 ft 441 kts 296°
2026-04-26 16:55 45.93190 21.39676 40104 ft 441 kts 296°
2026-04-26 16:56 45.97229 21.27821 40108 ft 441 kts 295°
2026-04-26 16:57 45.99920 21.19893 40128 ft 441 kts 295°
2026-04-26 16:57 46.03941 21.07999 40142 ft 441 kts 296°
2026-04-26 16:58 46.05733 21.02682 40125 ft 441 kts 295°
2026-04-26 16:59 46.10169 20.89471 40126 ft 440 kts 295°
2026-04-26 17:00 46.15482 20.73558 40129 ft 440 kts 294°
2026-04-26 17:00 46.18410 20.61024 40137 ft 439 kts 285°
2026-04-26 17:01 46.20060 20.52574 40134 ft 440 kts 285°
2026-04-26 17:01 46.21731 20.44063 40137 ft 441 kts 286°
2026-04-26 17:02 46.23411 20.35531 40143 ft 441 kts 286°
2026-04-26 17:02 46.25089 20.26999 40142 ft 442 kts 286°
2026-04-26 17:03 46.26765 20.18445 40146 ft 442 kts 286°
2026-04-26 17:03 46.28432 20.09891 40145 ft 442 kts 285°
2026-04-26 17:04 46.30094 20.01327 40144 ft 442 kts 285°
2026-04-26 17:04 46.31743 19.92793 40147 ft 442 kts 285°
2026-04-26 17:05 46.33396 19.84198 40150 ft 442 kts 285°
2026-04-26 17:05 46.35040 19.75607 40147 ft 442 kts 285°
2026-04-26 17:06 46.36668 19.67069 40147 ft 442 kts 285°
2026-04-26 17:06 46.38299 19.58470 40146 ft 442 kts 285°
2026-04-26 17:07 46.39923 19.49870 40151 ft 442 kts 285°
2026-04-26 17:07 46.41533 19.41306 40152 ft 442 kts 285°
2026-04-26 17:08 46.43140 19.32719 40148 ft 442 kts 285°
2026-04-26 17:08 46.44744 19.24110 40148 ft 442 kts 285°
2026-04-26 17:09 46.46072 19.16953 40157 ft 442 kts 285°
2026-04-26 17:09 46.47935 19.06859 40157 ft 442 kts 285°
2026-04-26 17:10 46.49509 18.98295 40161 ft 442 kts 285°
2026-04-26 17:10 46.51088 18.89659 40163 ft 442 kts 285°
2026-04-26 17:11 46.52659 18.81026 40160 ft 442 kts 285°
2026-04-26 17:11 46.54226 18.72377 40167 ft 442 kts 285°
2026-04-26 17:12 46.56565 18.59389 40169 ft 443 kts 285°
2026-04-26 17:13 46.58881 18.46433 40173 ft 443 kts 285°
2026-04-26 17:14 46.61192 18.33416 40179 ft 443 kts 284°
2026-04-26 17:14 46.63486 18.20394 40179 ft 443 kts 284°
2026-04-26 17:15 46.65759 18.07406 40174 ft 443 kts 284°
2026-04-26 17:16 46.67272 17.98703 40193 ft 442 kts 284°
2026-04-26 17:16 46.68772 17.90027 40183 ft 442 kts 284°
2026-04-26 17:17 46.70270 17.81329 40181 ft 442 kts 284°
2026-04-26 17:17 46.71759 17.72637 40176 ft 442 kts 284°
2026-04-26 17:18 46.73234 17.63980 40187 ft 442 kts 284°
2026-04-26 17:18 46.74711 17.55278 40188 ft 442 kts 284°
2026-04-26 17:19 46.76914 17.42207 40199 ft 442 kts 284°
2026-04-26 17:19 46.78373 17.33496 40202 ft 442 kts 283°
2026-04-26 17:20 46.79582 17.26242 40217 ft 442 kts 283°
2026-04-26 17:20 46.81264 17.16102 40207 ft 442 kts 283°
2026-04-26 17:21 46.82707 17.07354 40201 ft 443 kts 283°
2026-04-26 17:21 46.84142 16.98605 40213 ft 443 kts 283°
2026-04-26 17:22 46.85577 16.89817 40203 ft 443 kts 283°
2026-04-26 17:22 46.86994 16.81094 40188 ft 444 kts 283°
2026-04-26 17:23 46.88418 16.72279 40191 ft 444 kts 283°
2026-04-26 17:23 46.89824 16.63530 40199 ft 445 kts 283°
2026-04-26 17:24 46.91235 16.54703 40197 ft 445 kts 283°
2026-04-26 17:24 46.92637 16.45878 40208 ft 445 kts 283°
2026-04-26 17:25 46.94033 16.37056 40210 ft 445 kts 283°
2026-04-26 17:25 46.95421 16.28229 40193 ft 445 kts 283°
2026-04-26 17:26 46.96794 16.19449 40193 ft 445 kts 283°
2026-04-26 17:26 46.98169 16.10616 40202 ft 445 kts 283°
2026-04-26 17:27 46.99537 16.01771 40191 ft 445 kts 283°
2026-04-26 17:27 47.00899 15.92925 40189 ft 445 kts 282°
2026-04-26 17:28 47.02252 15.84083 40192 ft 445 kts 282°
2026-04-26 17:28 47.03600 15.75228 40198 ft 445 kts 282°
2026-04-26 17:29 47.04714 15.67871 40183 ft 444 kts 282°
2026-04-26 17:29 47.06274 15.57515 40180 ft 444 kts 282°
2026-04-26 17:30 47.07589 15.48727 40192 ft 444 kts 282°
2026-04-26 17:30 47.08907 15.39870 40181 ft 444 kts 282°
2026-04-26 17:31 47.10218 15.31012 40199 ft 443 kts 282°
2026-04-26 17:31 47.11520 15.22163 40172 ft 443 kts 282°
2026-04-26 17:32 47.12814 15.13318 40173 ft 443 kts 282°
2026-04-26 17:32 47.14103 15.04454 40171 ft 443 kts 282°
2026-04-26 17:33 47.15373 14.95668 40125 ft 443 kts 282°
2026-04-26 17:34 47.17280 14.82389 40134 ft 444 kts 282°
2026-04-26 17:34 47.18550 14.73483 40132 ft 444 kts 282°
2026-04-26 17:35 47.19810 14.64584 40122 ft 445 kts 281°
2026-04-26 17:35 47.21065 14.55672 40135 ft 446 kts 281°
2026-04-26 17:36 47.22317 14.46731 40138 ft 447 kts 281°
2026-04-26 17:36 47.23559 14.37806 40143 ft 448 kts 281°
2026-04-26 17:37 47.24801 14.28823 40153 ft 448 kts 281°
2026-04-26 17:37 47.26037 14.19831 40154 ft 448 kts 281°
2026-04-26 17:38 47.27886 14.06317 40153 ft 448 kts 281°
2026-04-26 17:38 47.29101 13.97305 40157 ft 448 kts 281°
2026-04-26 17:39 47.30310 13.88289 40168 ft 449 kts 281°
2026-04-26 17:39 47.31511 13.79317 40168 ft 449 kts 281°
2026-04-26 17:40 47.32311 13.73257 40160 ft 449 kts 281°
2026-04-26 17:40 47.33901 13.61210 40180 ft 449 kts 281°
2026-04-26 17:41 47.35088 13.52198 40170 ft 450 kts 281°
2026-04-26 17:41 47.36273 13.43124 40177 ft 450 kts 281°
2026-04-26 17:42 47.37449 13.34039 40164 ft 451 kts 281°
2026-04-26 17:42 47.38616 13.24955 40180 ft 451 kts 281°
2026-04-26 17:43 47.39780 13.15840 40168 ft 451 kts 281°
2026-04-26 17:43 47.40934 13.06749 40167 ft 450 kts 281°
2026-04-26 17:44 47.42073 12.97722 40180 ft 450 kts 281°
2026-04-26 17:44 47.43209 12.88633 40177 ft 450 kts 281°
2026-04-26 17:45 47.44157 12.81014 40172 ft 450 kts 281°
2026-04-26 17:45 47.45277 12.71962 40170 ft 450 kts 280°
2026-04-26 17:46 47.46394 12.62862 40176 ft 450 kts 280°
2026-04-26 17:46 47.47505 12.53755 40172 ft 450 kts 280°
2026-04-26 17:47 47.48424 12.46176 40176 ft 450 kts 280°
2026-04-26 17:47 47.49698 12.35585 40169 ft 450 kts 280°
2026-04-26 17:48 47.50787 12.26471 40172 ft 450 kts 280°
2026-04-26 17:48 47.51869 12.17345 40147 ft 450 kts 281°
2026-04-26 17:49 47.52415 12.12775 40024 ft 447 kts 280°
2026-04-26 17:49 47.52935 12.08248 39748 ft 446 kts 279°
2026-04-26 17:49 47.53454 12.03746 39385 ft 447 kts 280°
2026-04-26 17:49 47.53998 11.99217 39041 ft 448 kts 281°
2026-04-26 17:50 47.54582 11.94670 38685 ft 449 kts 281°
2026-04-26 17:50 47.55189 11.90127 38289 ft 449 kts 281°
2026-04-26 17:50 47.55800 11.85587 37867 ft 449 kts 281°
2026-04-26 17:50 47.56407 11.81060 37508 ft 447 kts 281°
2026-04-26 17:51 47.57010 11.76528 37086 ft 448 kts 281°
2026-04-26 17:51 47.57607 11.71992 36636 ft 449 kts 281°
2026-04-26 17:51 47.58201 11.67454 36258 ft 448 kts 281°
2026-04-26 17:51 47.58791 11.62913 36191 ft 449 kts 281°
2026-04-26 17:52 47.59958 11.53865 36164 ft 451 kts 280°
2026-04-26 17:52 47.61119 11.44810 36037 ft 442 kts 280°
2026-04-26 17:53 47.61690 11.40341 35783 ft 441 kts 280°
2026-04-26 17:53 47.62258 11.35873 35413 ft 442 kts 280°
2026-04-26 17:53 47.62828 11.31384 35022 ft 444 kts 280°
2026-04-26 17:54 47.63964 11.22383 34445 ft 443 kts 280°
2026-04-26 17:54 47.64520 11.17951 34120 ft 443 kts 279°
2026-04-26 17:54 47.65084 11.13446 33689 ft 444 kts 279°
2026-04-26 17:54 47.65647 11.08930 33197 ft 447 kts 279°
2026-04-26 17:55 47.66210 11.04395 32663 ft 450 kts 279°
2026-04-26 17:55 47.66778 10.99814 32301 ft 451 kts 279°
2026-04-26 17:55 47.67345 10.95219 32216 ft 454 kts 279°
2026-04-26 17:56 47.68481 10.85974 32206 ft 454 kts 279°
2026-04-26 17:57 47.70720 10.67561 31448 ft 448 kts 279°
2026-04-26 17:57 47.71265 10.63038 30817 ft 443 kts 279°
2026-04-26 17:57 47.71805 10.58540 30197 ft 444 kts 278°
2026-04-26 17:57 47.72346 10.54009 29522 ft 445 kts 279°
2026-04-26 17:58 47.73924 10.40740 27493 ft 428 kts 279°
2026-04-26 17:59 47.74576 10.32062 26221 ft 419 kts 270°
2026-04-26 17:59 47.74480 10.27762 25597 ft 414 kts 268°
2026-04-26 17:59 47.74355 10.23502 25000 ft 411 kts 268°
2026-04-26 17:59 47.74244 10.19278 24404 ft 407 kts 268°
2026-04-26 18:00 47.74140 10.15077 23828 ft 404 kts 268°
2026-04-26 18:00 47.74040 10.10923 23156 ft 402 kts 269°
2026-04-26 18:00 47.73944 10.06778 22482 ft 399 kts 269°
2026-04-26 18:00 47.73845 10.02669 21816 ft 397 kts 269°
2026-04-26 18:01 47.73741 9.98573 21179 ft 395 kts 269°
2026-04-26 18:01 47.73638 9.94506 20561 ft 393 kts 269°
2026-04-26 18:01 47.73534 9.90476 20338 ft 391 kts 269°
2026-04-26 18:01 47.73428 9.86408 20209 ft 397 kts 269°
2026-04-26 18:02 47.73320 9.82349 20195 ft 398 kts 269°
2026-04-26 18:02 47.73246 9.79576 20189 ft 399 kts 268°
2026-04-26 18:02 47.73100 9.74128 20191 ft 398 kts 268°
2026-04-26 18:02 47.72987 9.70020 20183 ft 398 kts 268°
2026-04-26 18:03 47.72874 9.65920 20183 ft 397 kts 269°
2026-04-26 18:03 47.72769 9.61820 20186 ft 396 kts 269°
2026-04-26 18:03 47.72666 9.57738 20184 ft 396 kts 269°
2026-04-26 18:03 47.72559 9.53647 20180 ft 395 kts 268°
2026-04-26 18:04 47.72432 9.49562 20183 ft 395 kts 268°
2026-04-26 18:04 47.72250 9.45522 20161 ft 390 kts 262°
2026-04-26 18:04 47.71437 9.41616 20193 ft 402 kts 246°
2026-04-26 18:05 47.68046 9.34971 20200 ft 407 kts 232°
2026-04-26 18:05 47.66216 9.31741 20198 ft 409 kts 233°
2026-04-26 18:05 47.64405 9.28488 20197 ft 409 kts 233°
2026-04-26 18:05 47.62624 9.25257 20184 ft 409 kts 233°
2026-04-26 18:06 47.60827 9.21989 20194 ft 407 kts 234°
2026-04-26 18:06 47.59326 9.18519 20191 ft 399 kts 249°
2026-04-26 18:06 47.58625 9.14580 20194 ft 391 kts 263°
2026-04-26 18:06 47.58220 9.10531 20205 ft 398 kts 263°
2026-04-26 18:07 47.58150 9.06449 20193 ft 400 kts 279°
2026-04-26 18:07 47.58963 9.02521 20202 ft 399 kts 294°
2026-04-26 18:07 47.60401 8.99056 20193 ft 400 kts 308°
2026-04-26 18:07 47.61651 8.97044 19992 ft 401 kts 313°
2026-04-26 18:08 47.64338 8.93135 18954 ft 399 kts 314°
2026-04-26 18:08 47.66288 8.90342 18496 ft 377 kts 314°
2026-04-26 18:08 47.68091 8.87721 18332 ft 350 kts 313°
2026-04-26 18:08 47.69755 8.85259 18159 ft 328 kts 313°
2026-04-26 18:09 47.71319 8.82921 18051 ft 318 kts 313°
2026-04-26 18:09 47.72853 8.80615 17911 ft 309 kts 313°
2026-04-26 18:09 47.74340 8.78378 17785 ft 300 kts 313°
2026-04-26 18:09 47.75782 8.76180 17675 ft 291 kts 309°
2026-04-26 18:10 47.76755 8.73582 17555 ft 291 kts 285°
2026-04-26 18:10 47.76995 8.70556 17219 ft 301 kts 268°
2026-04-26 18:10 47.76557 8.67508 16873 ft 304 kts 253°
2026-04-26 18:10 47.75852 8.64563 16512 ft 303 kts 252°
2026-04-26 18:11 47.74879 8.61808 16117 ft 306 kts 232°
2026-04-26 18:11 47.73171 8.59800 15759 ft 326 kts 208°
2026-04-26 18:11 47.70940 8.58847 15393 ft 342 kts 187°
2026-04-26 18:11 47.68572 8.59317 14969 ft 348 kts 160°
2026-04-26 18:12 47.66591 8.61350 14554 ft 351 kts 131°
2026-04-26 18:12 47.65207 8.64242 14183 ft 342 kts 126°
2026-04-26 18:12 47.63777 8.67068 13762 ft 342 kts 129°
2026-04-26 18:12 47.62285 8.69819 13329 ft 341 kts 130°
2026-04-26 18:13 47.60788 8.72539 12922 ft 340 kts 130°
2026-04-26 18:13 47.59299 8.75249 12517 ft 338 kts 130°
2026-04-26 18:13 47.57838 8.77912 12123 ft 337 kts 130°
2026-04-26 18:13 47.56844 8.79723 11862 ft 335 kts 129°
2026-04-26 18:14 47.55417 8.83642 11336 ft 326 kts 101°
2026-04-26 18:14 47.55189 8.86893 11111 ft 311 kts 94°
2026-04-26 18:14 47.54983 8.90080 10803 ft 308 kts 96°
2026-04-26 18:14 47.54755 8.93162 10386 ft 298 kts 96°
2026-04-26 18:15 47.54530 8.96150 9893 ft 292 kts 96°
2026-04-26 18:15 47.54309 8.99096 9519 ft 282 kts 96°
2026-04-26 18:15 47.53989 9.01912 9174 ft 277 kts 111°
2026-04-26 18:15 47.52944 9.04258 8851 ft 274 kts 139°
2026-04-26 18:16 47.51311 9.05616 8528 ft 269 kts 165°
2026-04-26 18:16 47.47636 9.05590 7879 ft 262 kts 187°
2026-04-26 18:16 47.45851 9.05277 7470 ft 256 kts 187°
2026-04-26 18:17 47.44192 9.04500 7116 ft 247 kts 216°
2026-04-26 18:17 47.43103 9.02651 6943 ft 239 kts 247°
2026-04-26 18:17 47.42801 9.00295 6721 ft 232 kts 269°
2026-04-26 18:17 47.42810 8.97911 6492 ft 233 kts 273°
2026-04-26 18:18 47.42918 8.95549 6262 ft 233 kts 276°
2026-04-26 18:18 47.43075 8.93185 6032 ft 230 kts 277°
2026-04-26 18:18 47.43243 8.90858 5815 ft 226 kts 277°
2026-04-26 18:18 47.43408 8.88573 5608 ft 221 kts 277°
2026-04-26 18:19 47.43568 8.86339 5394 ft 216 kts 277°
2026-04-26 18:19 47.43724 8.84154 5231 ft 210 kts 277°
2026-04-26 18:19 47.43876 8.82013 5062 ft 208 kts 277°
2026-04-26 18:19 47.44029 8.79884 4770 ft 209 kts 277°
2026-04-26 18:20 47.44182 8.77746 4469 ft 207 kts 277°
2026-04-26 18:20 47.44326 8.75676 4139 ft 194 kts 278°
2026-04-26 18:20 47.44463 8.73784 3894 ft 176 kts 277°
2026-04-26 18:20 47.44507 8.73188 3802 ft 172 kts 277°
2026-04-26 18:21 47.44700 8.70465 3393 ft 151 kts 278°
2026-04-26 18:21 47.44811 8.68938 3232 ft 154 kts 277°
2026-04-26 18:21 47.44921 8.67374 2981 ft 153 kts 277°
2026-04-26 18:21 47.45033 8.65815 2764 ft 152 kts 277°
2026-04-26 18:22 47.45144 8.64262 2525 ft 152 kts 278°
2026-04-26 18:22 47.45243 8.62734 2283 ft 146 kts 275°
2026-04-26 18:22 47.45340 8.61248 2040 ft 144 kts 278°
2026-04-26 18:22 47.45456 8.59726 1872 ft 154 kts 277°
2026-04-26 18:23 47.45575 8.58156 1649 ft 153 kts 278°
2026-04-26 18:23 47.45690 8.56603 1430 ft 148 kts 276°
2026-04-26 18:23 47.45785 8.55284 1404 ft 105 kts 276°
2026-04-26 18:23 47.45840 8.54483 1391 ft 52 kts 276°
2026-04-26 18:24 47.45870 8.54048 1405 ft 37 kts 276°
2026-04-26 18:24 47.45885 8.53854 1404 ft 9 kts 277°
2026-04-26 18:24 47.45912 8.53789 1411 ft 8 kts 325°
2026-04-26 18:24 47.45963 8.53793 1412 ft 8 kts 32°
2026-04-26 18:25 47.45987 8.53860 1410 ft 8 kts 81°
2026-04-26 18:25 47.45984 8.53972 1402 ft 19 kts 96°
2026-04-26 18:25 47.45973 8.54132 1400 ft 14 kts 95°
2026-04-26 18:25 47.45963 8.54277 1407 ft 13 kts 96°
2026-04-26 18:26 47.45955 8.54397 1397 ft 11 kts 95°
2026-04-26 18:26 47.45953 8.54430 1396 ft 0 kts 95°
2026-04-26 18:27 47.45948 8.54502 1401 ft 16 kts 95°
2026-04-26 18:27 47.45939 8.54637 1400 ft 13 kts 96°
2026-04-26 18:27 47.45929 8.54766 1401 ft 13 kts 96°
2026-04-26 18:28 47.45921 8.54891 1401 ft 10 kts 96°
2026-04-26 18:28 47.45934 8.54970 1408 ft 8 kts 43°
2026-04-26 18:28 47.45988 8.54963 1407 ft 8 kts 336°
2026-04-26 18:28 47.46094 8.54890 1403 ft 20 kts 334°
2026-04-26 18:29 47.46202 8.54815 1402 ft 14 kts 335°
2026-04-26 18:29 47.46268 8.54785 1398 ft 9 kts
2026-04-26 18:29 47.46299 8.54853 1401 ft 9 kts 87°
2026-04-26 18:29 47.46297 8.54913 1401 ft 9 kts 95°
2026-04-26 18:30 47.46290 8.55025 1401 ft 12 kts 95°
2026-04-26 18:30 47.46281 8.55149 1404 ft 6 kts 96°
2026-04-26 18:30 47.46277 8.55178 1401 ft 3 kts 114°
2026-04-26 18:30 47.46262 8.55191 1406 ft 3 kts 162°
2026-04-26 18:31 47.46249 8.55194 1404 ft 3 kts 172°
2026-04-26 18:31 47.46225 8.55194 1406 ft 4 kts 185°
2026-04-26 18:31 47.46207 8.55191 1406 ft 2 kts 185°
2026-04-26 18:31 47.46198 8.55190 1406 ft 0 kts 185°